Time,TemperatureF,DewpointF,PressureIn,WindDirection,WindDirectionDegrees,WindSpeedMPH,WindSpeedGustMPH,Humidity,HourlyPrecipIn,Conditions,Clouds,dailyrainin,SoftwareType,DateUTC
2013-02-09 00:00:00,149.5,99.9,0.00,NNE,21,10.1,15.8,97,0.00,,SKC,0.00,VWS V14.01,2013-02-09 05:00:00,
2013-02-09 00:03:00,149.5,99.9,0.00,East,83,10.3,10.3,97,0.00,,SKC,0.00,VWS V14.01,2013-02-09 05:03:00,
2013-02-09 00:08:00,149.5,99.9,0.00,NE,48,10.8,12.7,97,0.00,,SKC,0.00,VWS V14.01,2013-02-09 05:08:00,
2013-02-09 00:10:00,149.5,99.9,0.00,ENE,75,5.3,15.0,97,0.00,,SKC,0.00,VWS V14.01,2013-02-09 05:10:00,
2013-02-09 00:12:00,149.5,99.9,0.00,ENE,75,6.1,9.6,97,0.00,,SKC,0.00,VWS V14.01,2013-02-09 05:12:00,
2013-02-09 00:14:00,149.5,99.9,0.00,NNE,28,7.1,9.6,97,0.00,,SKC,0.00,VWS V14.01,2013-02-09 05:14:00,
2013-02-09 00:17:00,149.5,99.9,0.00,ENE,65,8.3,12.6,97,0.00,,SKC,0.00,VWS V14.01,2013-02-09 05:17:00,
2013-02-09 00:18:00,149.5,99.9,0.00,East,94,4.5,9.0,97,0.00,,SKC,0.00,VWS V14.01,2013-02-09 05:18:00,
2013-02-09 00:20:00,149.5,99.9,0.00,ENE,58,6.4,7.1,97,0.00,,SKC,0.00,VWS V14.01,2013-02-09 05:20:00,
2013-02-09 00:23:00,149.5,99.9,0.00,NE,45,5.0,8.5,97,0.00,,SKC,0.00,VWS V14.01,2013-02-09 05:23:00,
2013-02-09 00:24:00,149.5,99.9,0.00,East,80,5.1,10.4,97,0.00,,SKC,0.00,VWS V14.01,2013-02-09 05:24:00,
2013-02-09 00:29:00,149.5,99.9,0.00,ENE,77,5.4,10.4,97,0.00,,SKC,0.00,VWS V14.01,2013-02-09 05:29:00,
2013-02-09 00:30:00,149.5,99.9,0.00,East,89,3.8,5.4,97,0.00,,SKC,0.00,VWS V14.01,2013-02-09 05:30:00,
2013-02-09 00:32:00,149.5,99.9,0.00,ENE,65,5.8,8.0,97,0.00,,SKC,0.00,VWS V14.01,2013-02-09 05:32:00,
2013-02-09 00:35:00,149.5,99.9,0.00,ENE,60,2.5,7.6,97,0.00,,SKC,0.00,VWS V14.01,2013-02-09 05:35:00,
2013-02-09 00:38:00,149.5,99.9,0.00,NE,49,7.0,10.7,97,0.00,,SKC,0.00,VWS V14.01,2013-02-09 05:38:00,
2013-02-09 00:39:00,149.5,99.9,0.00,NE,41,8.0,11.7,97,0.00,,SKC,0.00,VWS V14.01,2013-02-09 05:39:00,
2013-02-09 00:41:00,149.5,99.9,0.00,ENE,65,7.3,8.5,97,0.00,,SKC,0.00,VWS V14.01,2013-02-09 05:41:00,
2013-02-09 00:44:00,149.5,99.9,0.00,ESE,103,4.3,5.7,97,0.00,,SKC,0.00,VWS V14.01,2013-02-09 05:44:00,
2013-02-09 00:45:00,149.5,99.9,0.00,NE,34,7.5,10.5,97,0.00,,SKC,0.00,VWS V14.01,2013-02-09 05:45:00,
2013-02-09 00:46:00,149.5,99.9,0.00,NE,46,3.8,10.4,97,0.00,,SKC,0.00,VWS V14.01,2013-02-09 05:46:00,
2013-02-09 00:50:00,149.5,99.9,0.00,ENE,62,6.4,9.4,96,0.00,,SKC,0.00,VWS V14.01,2013-02-09 05:50:00,
2013-02-09 00:51:00,149.5,99.9,0.00,ENE,68,4.3,8.4,96,0.00,,SKC,0.00,VWS V14.01,2013-02-09 05:51:00,
2013-02-09 00:54:00,149.5,99.9,0.00,East,83,5.5,9.9,96,0.00,,SKC,0.00,VWS V14.01,2013-02-09 05:54:00,
2013-02-09 00:58:00,149.5,99.9,0.00,East,90,5.3,7.6,96,0.00,,SKC,0.00,VWS V14.01,2013-02-09 05:58:00,
2013-02-09 00:59:00,149.5,99.9,0.00,ENE,75,4.8,7.8,96,0.00,,SKC,0.00,VWS V14.01,2013-02-09 05:59:00,
2013-02-09 01:00:00,149.5,99.9,0.00,NE,51,6.1,14.4,96,0.00,,SKC,0.00,VWS V14.01,2013-02-09 06:00:00,
2013-02-09 01:02:00,149.5,99.9,0.00,ENE,69,4.0,9.6,96,0.00,,SKC,0.00,VWS V14.01,2013-02-09 06:02:00,
2013-02-09 01:04:00,149.5,99.9,0.00,ENE,68,6.0,6.0,96,0.00,,SKC,0.00,VWS V14.01,2013-02-09 06:04:00,
2013-02-09 01:06:00,149.5,99.9,0.00,ENE,70,6.2,6.8,96,0.00,,SKC,0.00,VWS V14.01,2013-02-09 06:06:00,
2013-02-09 01:07:00,149.5,99.9,0.00,NE,44,3.8,7.0,96,0.00,,SKC,0.00,VWS V14.01,2013-02-09 06:07:00,
2013-02-09 01:09:00,149.5,99.9,0.00,ENE,77,3.2,8.6,96,0.00,,SKC,0.00,VWS V14.01,2013-02-09 06:09:00,
2013-02-09 01:13:00,149.5,99.9,0.00,ENE,69,4.7,5.5,96,0.00,,SKC,0.00,VWS V14.01,2013-02-09 06:13:00,
2013-02-09 01:14:00,149.5,99.9,0.00,ENE,58,6.6,6.6,96,0.00,,SKC,0.00,VWS V14.01,2013-02-09 06:14:00,
2013-02-09 01:16:00,149.5,99.9,0.00,ENE,66,6.8,11.9,97,0.00,,SKC,0.00,VWS V14.01,2013-02-09 06:16:00,
2013-02-09 01:17:00,149.5,99.9,0.00,NE,44,3.8,8.9,97,0.00,,SKC,0.00,VWS V14.01,2013-02-09 06:17:00,
2013-02-09 01:18:00,149.5,99.9,0.00,NE,49,5.7,5.7,97,0.00,,SKC,0.00,VWS V14.01,2013-02-09 06:18:00,
2013-02-09 01:20:00,149.5,99.9,0.00,ENE,60,8.6,9.7,97,0.00,,SKC,0.00,VWS V14.01,2013-02-09 06:20:00,
2013-02-09 01:22:00,149.5,99.9,0.00,NE,51,5.3,9.3,97,0.00,,SKC,0.00,VWS V14.01,2013-02-09 06:22:00,
2013-02-09 01:24:00,149.5,99.9,0.00,NE,56,7.3,9.8,97,0.00,,SKC,0.00,VWS V14.01,2013-02-09 06:24:00,
2013-02-09 01:25:00,149.5,99.9,0.00,NE,46,5.8,8.9,97,0.00,,SKC,0.00,VWS V14.01,2013-02-09 06:25:00,
2013-02-09 01:29:00,149.5,99.9,0.00,NNE,30,6.9,8.8,97,0.00,,SKC,0.00,VWS V14.01,2013-02-09 06:29:00,
2013-02-09 01:30:00,149.5,99.9,0.00,NE,39,7.5,12.4,97,0.00,,SKC,0.00,VWS V14.01,2013-02-09 06:30:00,
2013-02-09 02:35:00,149.5,99.9,0.00,ESE,108,4.1,9.7,97,0.00,,SKC,0.00,VWS V14.01,2013-02-09 07:35:00,
2013-02-09 02:36:00,149.5,99.9,0.00,ENE,62,4.3,10.4,97,0.00,,SKC,0.00,VWS V14.01,2013-02-09 07:36:00,
2013-02-09 02:37:00,149.5,99.9,0.00,East,90,6.2,6.2,97,0.00,,SKC,0.00,VWS V14.01,2013-02-09 07:37:00,
2013-02-09 02:41:00,149.5,99.9,0.00,ENE,62,8.6,8.6,97,0.00,,SKC,0.00,VWS V14.01,2013-02-09 07:41:00,
2013-02-09 02:43:00,149.5,99.9,0.00,ENE,60,4.7,8.6,97,0.00,,SKC,0.00,VWS V14.01,2013-02-09 07:43:00,
2013-02-09 02:45:00,149.5,99.9,0.00,ENE,69,3.9,6.5,97,0.00,,SKC,0.00,VWS V14.01,2013-02-09 07:45:00,
2013-02-09 02:47:00,149.5,99.9,0.00,ENE,58,4.5,8.1,97,0.00,,SKC,0.00,VWS V14.01,2013-02-09 07:47:00,
2013-02-09 02:48:00,149.5,99.9,0.00,NNE,24,5.8,9.3,97,0.00,,SKC,0.00,VWS V14.01,2013-02-09 07:48:00,
2013-02-09 02:49:00,149.5,99.9,0.00,East,93,6.3,7.7,97,0.00,,SKC,0.00,VWS V14.01,2013-02-09 07:49:00,
2013-02-09 02:51:00,149.5,99.9,0.00,NE,52,4.8,6.5,97,0.00,,SKC,0.00,VWS V14.01,2013-02-09 07:51:00,
2013-02-09 02:53:00,149.5,99.9,0.00,NE,35,5.5,6.9,97,0.00,,SKC,0.00,VWS V14.01,2013-02-09 07:53:00,
2013-02-09 02:58:00,149.5,99.9,0.00,NE,53,3.7,7.5,97,0.00,,SKC,0.00,VWS V14.01,2013-02-09 07:58:00,
2013-02-09 03:01:00,149.5,99.9,0.00,East,80,4.2,5.8,97,0.00,,SKC,0.00,VWS V14.01,2013-02-09 08:01:00,
2013-02-09 03:03:00,149.5,99.9,0.00,ENE,77,4.2,4.9,97,0.00,,SKC,0.00,VWS V14.01,2013-02-09 08:03:00,
2013-02-09 03:06:00,149.5,99.9,0.00,East,87,6.9,7.7,97,0.00,,SKC,0.00,VWS V14.01,2013-02-09 08:06:00,
2013-02-09 03:08:00,149.5,99.9,0.00,ENE,72,7.0,10.9,97,0.00,,SKC,0.00,VWS V14.01,2013-02-09 08:08:00,
2013-02-09 03:09:00,149.5,99.9,0.00,East,79,2.4,7.0,97,0.00,,SKC,0.00,VWS V14.01,2013-02-09 08:09:00,
2013-02-09 03:11:00,149.5,99.9,0.00,East,84,5.2,9.2,97,0.00,,SKC,0.00,VWS V14.01,2013-02-09 08:11:00,
2013-02-09 03:13:00,149.5,99.9,0.00,East,94,2.9,5.9,97,0.00,,SKC,0.00,VWS V14.01,2013-02-09 08:13:00,
2013-02-09 03:16:00,149.5,99.9,0.00,East,86,8.5,8.8,97,0.00,,SKC,0.00,VWS V14.01,2013-02-09 08:16:00,
2013-02-09 03:18:00,149.5,99.9,0.00,East,89,7.6,13.0,97,0.00,,SKC,0.00,VWS V14.01,2013-02-09 08:18:00,
2013-02-09 03:19:00,149.5,99.9,0.00,East,79,7.3,12.7,96,0.00,,SKC,0.00,VWS V14.01,2013-02-09 08:19:00,
2013-02-09 03:20:00,149.5,99.9,0.00,East,79,6.0,9.7,96,0.00,,SKC,0.00,VWS V14.01,2013-02-09 08:20:00,
2013-02-09 03:23:00,149.5,99.9,0.00,East,86,4.7,9.2,96,0.00,,SKC,0.00,VWS V14.01,2013-02-09 08:23:00,
2013-02-09 03:25:00,149.5,99.9,0.00,East,83,5.7,6.8,96,0.00,,SKC,0.00,VWS V14.01,2013-02-09 08:25:00,
2013-02-09 03:26:00,149.5,99.9,0.00,ENE,60,6.1,7.5,96,0.00,,SKC,0.00,VWS V14.01,2013-02-09 08:26:00,
2013-02-09 03:27:00,149.5,99.9,0.00,East,91,5.2,6.1,96,0.00,,SKC,0.00,VWS V14.01,2013-02-09 08:27:00,
2013-02-09 03:30:00,149.5,99.9,0.00,East,91,5.4,9.8,96,0.00,,SKC,0.00,VWS V14.01,2013-02-09 08:30:00,
2013-02-09 03:31:00,149.5,99.9,0.00,ESE,105,5.8,7.0,96,0.00,,SKC,0.00,VWS V14.01,2013-02-09 08:31:00,
2013-02-09 03:32:00,149.5,99.9,0.00,East,80,2.5,6.6,96,0.00,,SKC,0.00,VWS V14.01,2013-02-09 08:32:00,
2013-02-09 03:34:00,149.5,99.9,0.00,ENE,69,8.0,10.4,96,0.00,,SKC,0.00,VWS V14.01,2013-02-09 08:34:00,
2013-02-09 03:36:00,149.5,99.9,0.00,SE,131,4.6,7.0,96,0.00,,SKC,0.00,VWS V14.01,2013-02-09 08:36:00,
2013-02-09 03:39:00,149.5,99.9,0.00,East,87,8.9,8.9,96,0.00,,SKC,0.00,VWS V14.01,2013-02-09 08:39:00,
2013-02-09 03:42:00,149.5,99.9,0.00,East,94,6.2,7.6,96,0.00,,SKC,0.00,VWS V14.01,2013-02-09 08:42:00,
2013-02-09 03:43:00,149.5,99.9,0.00,East,97,2.8,8.3,96,0.00,,SKC,0.00,VWS V14.01,2013-02-09 08:43:00,
2013-02-09 03:44:00,149.5,99.9,0.00,NE,53,5.1,6.8,96,0.00,,SKC,0.00,VWS V14.01,2013-02-09 08:44:00,
2013-02-09 03:49:00,149.5,99.9,0.00,East,80,4.3,5.0,96,0.00,,SKC,0.00,VWS V14.01,2013-02-09 08:49:00,
2013-02-09 03:50:00,149.5,99.9,0.00,ENE,63,2.7,4.3,96,0.00,,SKC,0.00,VWS V14.01,2013-02-09 08:50:00,
2013-02-09 03:52:00,149.5,99.9,0.00,ENE,63,3.5,7.0,96,0.00,,SKC,0.00,VWS V14.01,2013-02-09 08:52:00,
2013-02-09 03:53:00,149.5,99.9,0.00,ENE,76,4.5,6.4,96,0.00,,SKC,0.00,VWS V14.01,2013-02-09 08:53:00,
2013-02-09 03:56:00,149.5,99.9,0.00,East,98,7.9,8.5,96,0.00,,SKC,0.00,VWS V14.01,2013-02-09 08:56:00,
2013-02-09 03:57:00,149.5,99.9,0.00,ENE,70,4.0,7.9,96,0.00,,SKC,0.00,VWS V14.01,2013-02-09 08:57:00,
2013-02-09 03:59:00,149.5,99.9,0.00,ENE,73,5.1,6.5,96,0.00,,SKC,0.00,VWS V14.01,2013-02-09 08:59:00,
2013-02-09 04:01:00,149.5,99.9,0.00,NE,48,4.4,4.8,96,0.00,,SKC,0.00,VWS V14.01,2013-02-09 09:01:00,
2013-02-09 04:04:00,149.5,99.9,0.00,NE,38,6.5,7.5,96,0.00,,SKC,0.00,VWS V14.01,2013-02-09 09:04:00,
2013-02-09 04:05:00,149.5,99.9,0.00,NNE,31,10.1,11.4,97,0.00,,SKC,0.00,VWS V14.01,2013-02-09 09:05:00,
2013-02-09 04:06:00,149.5,99.9,0.00,ENE,63,6.3,10.1,97,0.00,,SKC,0.00,VWS V14.01,2013-02-09 09:06:00,
2013-02-09 04:10:00,149.5,99.9,0.00,ENE,70,3.0,7.0,97,0.00,,SKC,0.00,VWS V14.01,2013-02-09 09:10:00,
2013-02-09 04:11:00,149.5,99.9,0.00,East,87,2.4,4.9,97,0.00,,SKC,0.00,VWS V14.01,2013-02-09 09:11:00,
2013-02-09 04:13:00,149.5,99.9,0.00,NE,52,4.7,6.9,97,0.00,,SKC,0.00,VWS V14.01,2013-02-09 09:13:00,
2013-02-09 04:16:00,149.5,99.9,0.00,SE,124,5.8,8.3,97,0.00,,SKC,0.00,VWS V14.01,2013-02-09 09:16:00,
2013-02-09 04:17:00,149.5,99.9,0.00,East,101,4.3,8.8,97,0.00,,SKC,0.00,VWS V14.01,2013-02-09 09:17:00,
2013-02-09 04:20:00,149.5,99.9,0.00,ENE,77,5.0,7.1,97,0.00,,SKC,0.00,VWS V14.01,2013-02-09 09:20:00,
2013-02-09 04:23:00,149.5,99.9,0.00,NE,48,6.2,7.2,97,0.00,,SKC,0.00,VWS V14.01,2013-02-09 09:23:00,
2013-02-09 04:25:00,149.5,99.9,0.00,East,82,3.7,7.1,97,0.00,,SKC,0.00,VWS V14.01,2013-02-09 09:25:00,
2013-02-09 04:26:00,149.5,99.9,0.00,NE,56,4.3,7.9,97,0.00,,SKC,0.00,VWS V14.01,2013-02-09 09:26:00,
2013-02-09 04:27:00,149.5,99.9,0.00,East,93,4.0,5.3,97,0.00,,SKC,0.00,VWS V14.01,2013-02-09 09:27:00,
2013-02-09 04:30:00,149.5,99.9,0.00,East,79,6.8,8.2,97,0.00,,SKC,0.00,VWS V14.01,2013-02-09 09:30:00,
2013-02-09 04:32:00,149.5,99.9,0.00,East,86,3.4,8.6,97,0.00,,SKC,0.00,VWS V14.01,2013-02-09 09:32:00,
2013-02-09 04:33:00,149.5,99.9,0.00,East,87,5.3,8.0,97,0.00,,SKC,0.00,VWS V14.01,2013-02-09 09:33:00,
2013-02-09 04:35:00,149.5,99.9,0.00,ENE,63,2.6,7.3,97,0.00,,SKC,0.00,VWS V14.01,2013-02-09 09:35:00,
2013-02-09 04:36:00,149.5,99.9,0.00,NE,56,8.3,9.3,97,0.00,,SKC,0.00,VWS V14.01,2013-02-09 09:36:00,
2013-02-09 04:38:00,149.5,99.9,0.00,ENE,70,6.0,6.5,97,0.00,,SKC,0.00,VWS V14.01,2013-02-09 09:38:00,
2013-02-09 04:41:00,149.5,99.9,0.00,ESE,110,3.4,5.7,97,0.00,,SKC,0.00,VWS V14.01,2013-02-09 09:41:00,
2013-02-09 04:44:00,149.5,99.9,0.00,NE,56,3.7,7.0,97,0.00,,SKC,0.00,VWS V14.01,2013-02-09 09:44:00,
2013-02-09 04:45:00,149.5,99.9,0.00,East,79,5.7,6.3,97,0.00,,SKC,0.00,VWS V14.01,2013-02-09 09:45:00,
2013-02-09 04:48:00,149.5,99.9,0.00,East,86,4.8,6.5,97,0.00,,SKC,0.00,VWS V14.01,2013-02-09 09:48:00,
2013-02-09 04:49:00,149.5,99.9,0.00,NE,41,5.5,8.4,97,0.00,,SKC,0.00,VWS V14.01,2013-02-09 09:49:00,
2013-02-09 04:50:00,149.5,99.9,0.00,ENE,70,4.3,7.1,97,0.00,,SKC,0.00,VWS V14.01,2013-02-09 09:50:00,
2013-02-09 04:53:00,149.5,99.9,0.00,ENE,62,3.1,7.5,97,0.00,,SKC,0.00,VWS V14.01,2013-02-09 09:53:00,
2013-02-09 04:55:00,149.5,99.9,0.00,East,83,8.9,9.9,97,0.00,,SKC,0.00,VWS V14.01,2013-02-09 09:55:00,
2013-02-09 04:56:00,149.5,99.9,0.00,East,84,3.9,8.9,97,0.00,,SKC,0.00,VWS V14.01,2013-02-09 09:56:00,
2013-02-09 04:59:00,149.5,99.9,0.00,ESE,110,2.9,6.5,97,0.00,,SKC,0.00,VWS V14.01,2013-02-09 09:59:00,
2013-02-09 05:01:00,149.5,99.9,0.00,East,90,4.3,5.9,97,0.00,,SKC,0.00,VWS V14.01,2013-02-09 10:01:00,
2013-02-09 05:02:00,149.5,99.9,0.00,NE,44,7.6,10.1,97,0.00,,SKC,0.00,VWS V14.01,2013-02-09 10:02:00,
2013-02-09 05:04:00,149.5,99.9,0.00,NE,55,6.0,9.7,97,0.00,,SKC,0.00,VWS V14.01,2013-02-09 10:04:00,
2013-02-09 05:05:00,149.5,99.9,0.00,NE,51,5.2,7.6,97,0.00,,SKC,0.00,VWS V14.01,2013-02-09 10:05:00,
2013-02-09 05:08:00,149.5,99.9,0.00,ESE,122,3.4,12.7,97,0.00,,SKC,0.00,VWS V14.01,2013-02-09 10:08:00,
2013-02-09 05:10:00,149.5,99.9,0.00,NE,52,4.1,9.1,97,0.00,,SKC,0.00,VWS V14.01,2013-02-09 10:10:00,
2013-02-09 05:11:00,149.5,99.9,0.00,ENE,63,3.7,9.2,97,0.00,,SKC,0.00,VWS V14.01,2013-02-09 10:11:00,
2013-02-09 05:14:00,149.5,99.9,0.00,East,94,5.7,8.5,98,0.00,,SKC,0.00,VWS V14.01,2013-02-09 10:14:00,
2013-02-09 05:16:00,149.5,99.9,0.00,East,82,5.2,6.6,98,0.00,,SKC,0.00,VWS V14.01,2013-02-09 10:16:00,
2013-02-09 05:18:00,149.5,99.9,0.00,East,79,4.8,7.0,98,0.00,,SKC,0.00,VWS V14.01,2013-02-09 10:18:00,
2013-02-09 05:20:00,149.5,99.9,0.00,ENE,73,3.4,7.1,98,0.00,,SKC,0.00,VWS V14.01,2013-02-09 10:20:00,
2013-02-09 05:22:00,149.5,99.9,0.00,East,89,3.9,4.9,98,0.00,,SKC,0.00,VWS V14.01,2013-02-09 10:22:00,
2013-02-09 05:23:00,149.5,99.9,0.00,East,91,3.6,6.0,98,0.00,,SKC,0.00,VWS V14.01,2013-02-09 10:23:00,
2013-02-09 05:26:00,149.5,99.9,0.00,ENE,66,1.0,3.0,98,0.00,,SKC,0.00,VWS V14.01,2013-02-09 10:26:00,
2013-02-09 05:27:00,149.5,99.9,0.00,ENE,62,2.7,6.0,98,0.00,,SKC,0.00,VWS V14.01,2013-02-09 10:27:00,
2013-02-09 05:29:00,149.5,99.9,0.00,NE,46,2.2,4.5,98,0.00,,SKC,0.00,VWS V14.01,2013-02-09 10:29:00,
2013-02-09 05:32:00,149.5,99.9,0.00,NE,46,2.4,5.7,98,0.00,,SKC,0.00,VWS V14.01,2013-02-09 10:32:00,
2013-02-09 05:33:00,149.5,99.9,0.00,East,93,5.7,7.5,98,0.00,,SKC,0.00,VWS V14.01,2013-02-09 10:33:00,
2013-02-09 05:36:00,149.5,99.9,0.00,NE,52,5.3,7.8,98,0.00,,SKC,0.00,VWS V14.01,2013-02-09 10:36:00,
2013-02-09 05:39:00,149.5,99.9,0.00,NE,53,5.3,6.3,98,0.00,,SKC,0.00,VWS V14.01,2013-02-09 10:39:00,
2013-02-09 05:42:00,149.5,99.9,0.00,East,96,6.5,6.7,98,0.00,,SKC,0.00,VWS V14.01,2013-02-09 10:42:00,
2013-02-09 05:44:00,149.5,99.9,0.00,East,80,3.9,7.0,98,0.00,,SKC,0.00,VWS V14.01,2013-02-09 10:44:00,
2013-02-09 05:45:00,149.5,99.9,0.00,East,93,5.8,7.5,98,0.00,,SKC,0.00,VWS V14.01,2013-02-09 10:45:00,
2013-02-09 05:49:00,149.5,99.9,0.00,East,79,7.0,7.9,98,0.00,,SKC,0.00,VWS V14.01,2013-02-09 10:49:00,
2013-02-09 05:50:00,149.5,99.9,0.00,East,89,4.4,8.4,98,0.00,,SKC,0.00,VWS V14.01,2013-02-09 10:50:00,
2013-02-09 05:52:00,149.5,99.9,0.00,NE,52,5.5,8.6,98,0.00,,SKC,0.00,VWS V14.01,2013-02-09 10:52:00,
2013-02-09 05:55:00,149.5,99.9,0.00,East,87,4.2,6.3,98,0.00,,SKC,0.00,VWS V14.01,2013-02-09 10:55:00,
2013-02-09 05:56:00,149.5,99.9,0.00,East,82,8.6,8.6,98,0.00,,SKC,0.00,VWS V14.01,2013-02-09 10:56:00,
2013-02-09 05:57:00,149.5,99.9,0.00,ENE,73,2.9,8.9,98,0.00,,SKC,0.00,VWS V14.01,2013-02-09 10:57:00,
2013-02-09 06:00:00,149.5,99.9,0.00,ENE,76,4.3,5.9,98,0.00,,SKC,0.00,VWS V14.01,2013-02-09 11:00:00,
2013-02-09 06:02:00,149.5,99.9,0.00,ENE,70,1.6,4.8,98,0.00,,SKC,0.00,VWS V14.01,2013-02-09 11:02:00,
2013-02-09 06:05:00,149.5,99.9,0.00,ENE,75,3.6,8.0,98,0.00,,SKC,0.00,VWS V14.01,2013-02-09 11:05:00,
2013-02-09 06:07:00,149.5,99.9,0.00,ENE,68,3.7,8.6,98,0.00,,SKC,0.00,VWS V14.01,2013-02-09 11:07:00,
2013-02-09 06:08:00,149.5,99.9,0.00,ESE,105,4.2,9.0,98,0.00,,SKC,0.00,VWS V14.01,2013-02-09 11:08:00,
2013-02-09 06:12:00,149.5,99.9,0.00,ENE,68,5.2,6.3,98,0.00,,SKC,0.00,VWS V14.01,2013-02-09 11:12:00,
2013-02-09 06:13:00,149.5,99.9,0.00,ENE,76,5.6,5.6,98,0.00,,SKC,0.00,VWS V14.01,2013-02-09 11:13:00,
2013-02-09 06:14:00,149.5,99.9,0.00,ENE,66,3.1,6.4,98,0.00,,SKC,0.00,VWS V14.01,2013-02-09 11:14:00,
2013-02-09 06:15:00,149.5,99.9,0.00,East,86,5.1,6.7,98,0.00,,SKC,0.00,VWS V14.01,2013-02-09 11:15:00,
2013-02-09 06:19:00,149.5,99.9,0.00,ENE,60,5.8,10.2,98,0.00,,SKC,0.00,VWS V14.01,2013-02-09 11:19:00,
2013-02-09 06:20:00,149.5,99.9,0.00,East,96,5.2,7.3,98,0.00,,SKC,0.00,VWS V14.01,2013-02-09 11:20:00,
2013-02-09 06:21:00,149.5,99.9,0.00,NE,45,2.7,5.2,98,0.00,,SKC,0.00,VWS V14.01,2013-02-09 11:21:00,
2013-02-09 06:25:00,149.5,99.9,0.00,East,84,5.6,7.5,98,0.00,,SKC,0.00,VWS V14.01,2013-02-09 11:25:00,
2013-02-09 06:28:00,149.5,99.9,0.00,ENE,59,6.1,7.3,98,0.00,,SKC,0.00,VWS V14.01,2013-02-09 11:28:00,
2013-02-09 06:29:00,149.5,99.9,0.00,NE,55,6.9,11.9,98,0.00,,SKC,0.00,VWS V14.01,2013-02-09 11:29:00,
2013-02-09 06:34:00,149.5,99.9,0.00,ENE,77,4.5,9.4,98,0.00,,SKC,0.00,VWS V14.01,2013-02-09 11:34:00,
2013-02-09 06:35:00,149.5,99.9,0.00,East,79,4.1,7.3,98,0.00,,SKC,0.00,VWS V14.01,2013-02-09 11:35:00,
2013-02-09 06:36:00,149.5,99.9,0.00,ENE,73,6.3,7.4,98,0.00,,SKC,0.00,VWS V14.01,2013-02-09 11:36:00,
2013-02-09 06:39:00,149.5,99.9,0.00,NE,49,5.7,8.8,98,0.00,,SKC,0.00,VWS V14.01,2013-02-09 11:39:00,
2013-02-09 06:41:00,149.5,99.9,0.00,NE,56,4.3,5.7,98,0.00,,SKC,0.00,VWS V14.01,2013-02-09 11:41:00,
2013-02-09 06:42:00,149.5,99.9,0.00,NE,55,5.9,9.5,98,0.00,,SKC,0.00,VWS V14.01,2013-02-09 11:42:00,
2013-02-09 06:46:00,149.5,99.9,0.00,ENE,72,4.6,6.3,98,0.00,,SKC,0.00,VWS V14.01,2013-02-09 11:46:00,
2013-02-09 06:47:00,149.5,99.9,0.00,East,80,4.9,6.0,98,0.00,,SKC,0.00,VWS V14.01,2013-02-09 11:47:00,
2013-02-09 06:49:00,149.5,99.9,0.00,NE,56,6.6,8.8,98,0.00,,SKC,0.00,VWS V14.01,2013-02-09 11:49:00,
2013-02-09 06:50:00,149.5,99.9,0.00,East,84,7.0,9.4,98,0.00,,SKC,0.00,VWS V14.01,2013-02-09 11:50:00,
2013-02-09 06:52:00,149.5,99.9,0.00,SE,135,1.6,6.1,98,0.00,,SKC,0.00,VWS V14.01,2013-02-09 11:52:00,
2013-02-09 06:54:00,149.5,99.9,0.00,ENE,76,3.7,5.3,98,0.00,,SKC,0.00,VWS V14.01,2013-02-09 11:54:00,
2013-02-09 06:56:00,149.5,99.9,0.00,East,89,4.8,8.7,98,0.00,,SKC,0.00,VWS V14.01,2013-02-09 11:56:00,
2013-02-09 06:57:00,149.5,99.9,0.00,ENE,70,3.9,8.0,98,0.00,,SKC,0.00,VWS V14.01,2013-02-09 11:57:00,
2013-02-09 06:59:00,149.5,99.9,0.00,East,86,2.0,8.5,98,0.00,,SKC,0.00,VWS V14.01,2013-02-09 11:59:00,
2013-02-09 07:00:00,149.5,99.9,0.00,East,91,5.5,6.1,98,0.00,,SKC,0.00,VWS V14.01,2013-02-09 12:00:00,
2013-02-09 07:05:00,149.5,99.9,0.00,ENE,76,5.3,5.8,98,0.00,,SKC,0.00,VWS V14.01,2013-02-09 12:05:00,
2013-02-09 07:06:00,149.5,99.9,0.00,East,87,4.2,6.4,98,0.00,,SKC,0.00,VWS V14.01,2013-02-09 12:06:00,
2013-02-09 07:07:00,149.5,99.9,0.00,East,101,3.7,6.1,98,0.00,,SKC,0.00,VWS V14.01,2013-02-09 12:07:00,
2013-02-09 07:09:00,149.5,99.9,0.00,East,87,4.3,6.3,98,0.00,,SKC,0.00,VWS V14.01,2013-02-09 12:09:00,
2013-02-09 07:10:00,149.5,99.9,0.00,East,86,7.3,9.3,98,0.00,,SKC,0.00,VWS V14.01,2013-02-09 12:10:00,
2013-02-09 07:14:00,149.5,99.9,0.00,East,94,2.2,9.8,98,0.00,,SKC,0.00,VWS V14.01,2013-02-09 12:14:00,
2013-02-09 07:15:00,149.5,99.9,0.00,East,79,6.1,8.3,98,0.00,,SKC,0.00,VWS V14.01,2013-02-09 12:15:00,
2013-02-09 07:16:00,149.5,99.9,0.00,NE,55,7.1,8.0,98,0.00,,SKC,0.00,VWS V14.01,2013-02-09 12:16:00,
2013-02-09 07:21:00,149.5,99.9,0.00,ENE,68,7.6,10.4,98,0.00,,SKC,0.00,VWS V14.01,2013-02-09 12:21:00,
2013-02-09 07:22:00,149.5,99.9,0.00,ESE,105,4.9,7.9,98,0.00,,SKC,0.00,VWS V14.01,2013-02-09 12:22:00,
2013-02-09 07:25:00,149.5,99.9,0.00,ENE,63,2.9,5.7,98,0.00,,SKC,0.00,VWS V14.01,2013-02-09 12:25:00,
2013-02-09 07:26:00,149.5,99.9,0.00,ENE,69,8.4,8.4,98,0.00,,SKC,0.00,VWS V14.01,2013-02-09 12:26:00,
2013-02-09 07:28:00,149.5,99.9,0.00,East,91,5.3,8.4,98,0.00,,SKC,0.00,VWS V14.01,2013-02-09 12:28:00,
2013-02-09 07:31:00,149.5,99.9,0.00,East,98,1.5,6.1,98,0.00,,SKC,0.00,VWS V14.01,2013-02-09 12:31:00,
2013-02-09 07:32:00,149.5,99.9,0.00,East,89,5.0,5.0,98,0.00,,SKC,0.00,VWS V14.01,2013-02-09 12:32:00,
2013-02-09 07:33:00,149.5,99.9,0.00,East,93,8.7,8.9,98,0.00,,SKC,0.00,VWS V14.01,2013-02-09 12:33:00,
2013-02-09 07:34:00,149.5,99.9,0.00,East,82,6.0,9.4,98,0.00,,SKC,0.00,VWS V14.01,2013-02-09 12:34:00,
2013-02-09 07:37:00,149.5,99.9,0.00,East,98,3.6,6.6,98,0.00,,SKC,0.00,VWS V14.01,2013-02-09 12:37:00,
2013-02-09 07:38:00,149.5,99.9,0.00,NE,53,6.6,6.8,98,0.00,,SKC,0.00,VWS V14.01,2013-02-09 12:38:00,
2013-02-09 07:40:00,149.5,99.9,0.00,ENE,60,5.6,9.6,98,0.00,,SKC,0.00,VWS V14.01,2013-02-09 12:40:00,
2013-02-09 07:42:00,149.5,99.9,0.00,ENE,58,8.9,9.7,98,0.00,,SKC,0.00,VWS V14.01,2013-02-09 12:42:00,
2013-02-09 07:43:00,149.5,99.9,0.00,East,79,5.7,10.3,98,0.00,,SKC,0.00,VWS V14.01,2013-02-09 12:43:00,
2013-02-09 07:46:00,149.5,99.9,0.00,East,87,6.1,9.1,98,0.00,,SKC,0.00,VWS V14.01,2013-02-09 12:46:00,
2013-02-09 07:48:00,149.5,99.9,0.00,East,82,4.3,6.8,98,0.00,,SKC,0.00,VWS V14.01,2013-02-09 12:48:00,
2013-02-09 07:49:00,149.5,99.9,0.00,ENE,69,2.5,7.5,98,0.00,,SKC,0.00,VWS V14.01,2013-02-09 12:49:00,
2013-02-09 07:52:00,149.5,99.9,0.00,ENE,77,4.1,9.1,98,0.00,,SKC,0.00,VWS V14.01,2013-02-09 12:52:00,
2013-02-09 07:53:00,149.5,99.9,0.00,NE,44,4.8,5.3,98,0.00,,SKC,0.00,VWS V14.01,2013-02-09 12:53:00,
2013-02-09 07:55:00,149.5,99.9,0.00,East,100,6.6,6.6,98,0.00,,SKC,0.00,VWS V14.01,2013-02-09 12:55:00,
2013-02-09 07:56:00,149.5,99.9,0.00,East,86,4.3,6.6,98,0.00,,SKC,0.00,VWS V14.01,2013-02-09 12:56:00,
2013-02-09 07:59:00,149.5,99.9,0.00,ENE,65,9.6,10.5,98,0.00,,SKC,0.00,VWS V14.01,2013-02-09 12:59:00,
2013-02-09 08:00:00,149.5,99.9,0.00,ENE,69,3.7,11.4,98,0.00,,SKC,0.00,VWS V14.01,2013-02-09 13:00:00,
2013-02-09 08:01:00,149.5,99.9,0.00,East,100,3.8,10.9,98,0.00,,SKC,0.00,VWS V14.01,2013-02-09 13:01:00,
2013-02-09 08:05:00,149.5,99.9,0.00,East,93,4.1,9.1,98,0.00,,SKC,0.00,VWS V14.01,2013-02-09 13:05:00,
2013-02-09 08:06:00,149.5,99.9,0.00,ENE,76,6.5,8.6,98,0.00,,SKC,0.00,VWS V14.01,2013-02-09 13:06:00,
2013-02-09 08:07:00,149.5,99.9,0.00,ENE,75,4.5,6.9,98,0.00,,SKC,0.00,VWS V14.01,2013-02-09 13:07:00,
2013-02-09 08:09:00,149.5,99.9,0.00,East,89,3.7,4.5,98,0.00,,SKC,0.00,VWS V14.01,2013-02-09 13:09:00,
2013-02-09 08:13:00,149.5,99.9,0.00,ENE,76,4.4,5.9,98,0.00,,SKC,0.00,VWS V14.01,2013-02-09 13:13:00,
2013-02-09 08:14:00,149.5,99.9,0.00,East,97,6.3,8.9,98,0.00,,SKC,0.00,VWS V14.01,2013-02-09 13:14:00,
2013-02-09 08:16:00,149.5,99.9,0.00,East,87,6.2,9.5,98,0.00,,SKC,0.00,VWS V14.01,2013-02-09 13:16:00,
2013-02-09 08:18:00,149.5,99.9,0.00,East,94,4.1,11.1,98,0.00,,SKC,0.00,VWS V14.01,2013-02-09 13:18:00,
2013-02-09 08:21:00,149.5,99.9,0.00,East,96,6.4,9.8,98,0.00,,SKC,0.00,VWS V14.01,2013-02-09 13:21:00,
2013-02-09 08:24:00,149.5,99.9,0.00,NNE,32,6.0,10.8,98,0.00,,SKC,0.00,VWS V14.01,2013-02-09 13:24:00,
2013-02-09 08:26:00,149.5,99.9,0.00,East,87,3.6,9.6,98,0.00,,SKC,0.00,VWS V14.01,2013-02-09 13:26:00,
2013-02-09 08:28:00,149.5,99.9,0.00,ENE,77,4.5,8.9,98,0.00,,SKC,0.00,VWS V14.01,2013-02-09 13:28:00,
2013-02-09 08:31:00,149.5,99.9,0.00,East,83,7.0,8.8,98,0.00,,SKC,0.00,VWS V14.01,2013-02-09 13:31:00,
2013-02-09 08:33:00,149.5,99.9,0.00,ENE,65,9.4,9.9,98,0.00,,SKC,0.00,VWS V14.01,2013-02-09 13:33:00,
2013-02-09 08:36:00,149.5,99.9,0.00,ESE,105,4.0,8.3,98,0.00,,SKC,0.00,VWS V14.01,2013-02-09 13:36:00,
2013-02-09 08:40:00,149.5,99.9,0.00,ENE,69,7.1,11.1,98,0.00,,SKC,0.00,VWS V14.01,2013-02-09 13:40:00,
2013-02-09 08:41:00,149.5,99.9,0.00,ESE,105,6.8,11.2,98,0.00,,SKC,0.00,VWS V14.01,2013-02-09 13:41:00,
2013-02-09 08:46:00,149.5,99.9,0.00,ESE,115,6.2,9.9,98,0.00,,SKC,0.00,VWS V14.01,2013-02-09 13:46:00,
2013-02-09 08:47:00,149.5,99.9,0.00,ESE,107,6.0,8.8,98,0.00,,SKC,0.00,VWS V14.01,2013-02-09 13:47:00,
2013-02-09 08:48:00,149.5,99.9,0.00,East,93,7.9,9.4,98,0.00,,SKC,0.00,VWS V14.01,2013-02-09 13:48:00,
2013-02-09 08:51:00,149.5,99.9,0.00,East,101,4.0,6.8,98,0.00,,SKC,0.00,VWS V14.01,2013-02-09 13:51:00,
2013-02-09 08:52:00,149.5,99.9,0.00,East,100,4.8,6.6,98,0.00,,SKC,0.00,VWS V14.01,2013-02-09 13:52:00,
2013-02-09 08:55:00,149.5,99.9,0.00,NE,45,7.0,9.7,98,0.00,,SKC,0.00,VWS V14.01,2013-02-09 13:55:00,
2013-02-09 08:58:00,149.5,99.9,0.00,East,90,8.9,11.9,98,0.00,,SKC,0.00,VWS V14.01,2013-02-09 13:58:00,
2013-02-09 08:59:00,149.5,99.9,0.00,East,86,3.8,9.6,98,0.00,,SKC,0.00,VWS V14.01,2013-02-09 13:59:00,
2013-02-09 09:03:00,149.5,99.9,0.00,East,98,9.1,11.4,98,0.00,,SKC,0.00,VWS V14.01,2013-02-09 14:03:00,
2013-02-09 09:04:00,149.5,99.9,0.00,SE,127,4.7,9.4,98,0.00,,SKC,0.00,VWS V14.01,2013-02-09 14:04:00,
2013-02-09 09:05:00,149.5,99.9,0.00,ESE,111,5.3,7.0,98,0.00,,SKC,0.00,VWS V14.01,2013-02-09 14:05:00,
2013-02-09 09:08:00,149.5,99.9,0.00,East,86,6.6,9.3,98,0.00,,SKC,0.00,VWS V14.01,2013-02-09 14:08:00,
2013-02-09 09:09:00,149.5,99.9,0.00,ENE,60,6.7,8.8,97,0.00,,SKC,0.00,VWS V14.01,2013-02-09 14:09:00,
2013-02-09 09:11:00,149.5,99.9,0.00,ENE,77,3.0,4.0,97,0.00,,SKC,0.00,VWS V14.01,2013-02-09 14:11:00,
2013-02-09 09:13:00,149.5,99.9,0.00,ENE,62,10.6,12.6,97,0.00,,SKC,0.00,VWS V14.01,2013-02-09 14:13:00,
2013-02-09 09:15:00,149.5,99.9,0.00,East,96,3.9,10.3,97,0.00,,SKC,0.00,VWS V14.01,2013-02-09 14:15:00,
2013-02-09 09:18:00,149.5,99.9,0.00,East,86,5.5,9.6,97,0.00,,SKC,0.00,VWS V14.01,2013-02-09 14:18:00,
2013-02-09 09:19:00,149.5,99.9,0.00,ENE,76,4.4,5.5,97,0.00,,SKC,0.00,VWS V14.01,2013-02-09 14:19:00,
2013-02-09 09:20:00,149.5,99.9,0.00,East,80,5.6,10.2,97,0.00,,SKC,0.00,VWS V14.01,2013-02-09 14:20:00,
2013-02-09 09:21:00,149.5,99.9,0.00,East,98,5.6,7.3,97,0.00,,SKC,0.00,VWS V14.01,2013-02-09 14:21:00,
2013-02-09 09:26:00,149.5,99.9,0.00,ESE,111,4.3,7.7,97,0.00,,SKC,0.00,VWS V14.01,2013-02-09 14:26:00,
2013-02-09 09:27:00,149.5,99.9,0.00,SSE,156,9.4,9.4,97,0.00,,SKC,0.00,VWS V14.01,2013-02-09 14:27:00,
2013-02-09 09:31:00,149.5,99.9,0.00,East,91,3.6,12.1,97,0.00,,SKC,0.00,VWS V14.01,2013-02-09 14:31:00,
2013-02-09 09:32:00,149.5,99.9,0.00,East,90,2.9,6.2,97,0.00,,SKC,0.00,VWS V14.01,2013-02-09 14:32:00,
2013-02-09 09:34:00,149.5,99.9,0.00,ESE,110,2.5,5.8,97,0.00,,SKC,0.00,VWS V14.01,2013-02-09 14:34:00,
2013-02-09 09:37:00,149.5,99.9,0.00,ENE,73,12.1,12.2,97,0.00,,SKC,0.00,VWS V14.01,2013-02-09 14:37:00,
2013-02-09 09:38:00,149.5,99.9,0.00,ESE,104,5.9,12.1,97,0.00,,SKC,0.00,VWS V14.01,2013-02-09 14:38:00,
2013-02-09 09:41:00,149.5,99.9,0.00,ESE,103,6.8,8.0,97,0.00,,SKC,0.00,VWS V14.01,2013-02-09 14:41:00,
2013-02-09 09:43:00,149.5,99.9,0.00,ESE,105,5.9,9.7,97,0.00,,SKC,0.00,VWS V14.01,2013-02-09 14:43:00,
2013-02-09 09:44:00,149.5,99.9,0.00,East,97,6.6,10.0,97,0.00,,SKC,0.00,VWS V14.01,2013-02-09 14:44:00,
2013-02-09 09:47:00,149.5,99.9,0.00,East,87,4.2,6.3,97,0.00,,SKC,0.00,VWS V14.01,2013-02-09 14:47:00,
2013-02-09 09:49:00,149.5,99.9,0.00,East,90,6.7,8.8,97,0.00,,SKC,0.00,VWS V14.01,2013-02-09 14:49:00,
2013-02-09 09:50:00,149.5,99.9,0.00,East,89,10.5,10.5,97,0.00,,SKC,0.00,VWS V14.01,2013-02-09 14:50:00,
2013-02-09 09:52:00,149.5,99.9,0.00,ESE,108,2.2,8.1,97,0.00,,SKC,0.00,VWS V14.01,2013-02-09 14:52:00,
2013-02-09 09:53:00,149.5,99.9,0.00,East,97,4.7,7.0,97,0.00,,SKC,0.00,VWS V14.01,2013-02-09 14:53:00,
2013-02-09 09:54:00,149.5,99.9,0.00,ESE,105,2.2,7.6,97,0.00,,SKC,0.00,VWS V14.01,2013-02-09 14:54:00,
2013-02-09 09:56:00,149.5,99.9,0.00,East,84,4.0,5.5,97,0.00,,SKC,0.00,VWS V14.01,2013-02-09 14:56:00,
2013-02-09 09:57:00,149.5,99.9,0.00,East,96,2.4,9.8,97,0.00,,SKC,0.00,VWS V14.01,2013-02-09 14:57:00,
2013-02-09 09:59:00,149.5,99.9,0.00,ESE,111,4.0,7.8,97,0.00,,SKC,0.00,VWS V14.01,2013-02-09 14:59:00,
2013-02-09 10:01:00,149.5,99.9,0.00,NE,45,4.4,5.3,97,0.00,,SKC,0.00,VWS V14.01,2013-02-09 15:01:00,
2013-02-09 10:02:00,149.5,99.9,0.00,ENE,70,1.9,5.5,97,0.00,,SKC,0.00,VWS V14.01,2013-02-09 15:02:00,
2013-02-09 10:03:00,149.5,99.9,0.00,East,94,5.8,7.1,97,0.00,,SKC,0.00,VWS V14.01,2013-02-09 15:03:00,
2013-02-09 10:06:00,149.5,99.9,0.00,SE,124,3.5,7.1,97,0.00,,SKC,0.00,VWS V14.01,2013-02-09 15:06:00,
2013-02-09 10:08:00,149.5,99.9,0.00,ENE,77,4.5,7.0,97,0.00,,SKC,0.00,VWS V14.01,2013-02-09 15:08:00,
2013-02-09 10:09:00,149.5,99.9,0.00,East,86,1.8,6.7,97,0.00,,SKC,0.00,VWS V14.01,2013-02-09 15:09:00,
2013-02-09 10:12:00,149.5,99.9,0.00,East,101,5.3,6.9,97,0.00,,SKC,0.00,VWS V14.01,2013-02-09 15:12:00,
2013-02-09 10:14:00,149.5,99.9,0.00,ESE,112,5.3,7.1,97,0.00,,SKC,0.00,VWS V14.01,2013-02-09 15:14:00,
2013-02-09 10:15:00,149.5,99.9,0.00,East,84,4.3,7.9,97,0.00,,SKC,0.00,VWS V14.01,2013-02-09 15:15:00,
2013-02-09 10:16:00,149.5,99.9,0.00,East,84,2.1,4.3,97,0.00,,SKC,0.00,VWS V14.01,2013-02-09 15:16:00,
2013-02-09 10:17:00,149.5,99.9,0.00,ENE,75,4.5,5.6,97,0.00,,SKC,0.00,VWS V14.01,2013-02-09 15:17:00,
2013-02-09 10:21:00,149.5,99.9,0.00,East,89,2.5,6.8,97,0.00,,SKC,0.00,VWS V14.01,2013-02-09 15:21:00,
2013-02-09 10:22:00,149.5,99.9,0.00,East,87,2.2,3.2,97,0.00,,SKC,0.00,VWS V14.01,2013-02-09 15:22:00,
2013-02-09 10:24:00,149.5,99.9,0.00,NE,56,5.0,7.6,97,0.00,,SKC,0.00,VWS V14.01,2013-02-09 15:24:00,
2013-02-09 10:27:00,149.5,99.9,0.00,East,98,5.3,5.3,97,0.00,,SKC,0.00,VWS V14.01,2013-02-09 15:27:00,
2013-02-09 10:29:00,149.5,99.9,0.00,ESE,104,4.5,9.7,97,0.00,,SKC,0.00,VWS V14.01,2013-02-09 15:29:00,
2013-02-09 10:31:00,149.5,99.9,0.00,ESE,120,3.9,8.1,97,0.00,,SKC,0.00,VWS V14.01,2013-02-09 15:31:00,
2013-02-09 10:34:00,149.5,99.9,0.00,East,86,7.6,8.6,97,0.00,,SKC,0.00,VWS V14.01,2013-02-09 15:34:00,
2013-02-09 10:35:00,149.5,99.9,0.00,NE,56,6.0,9.4,97,0.00,,SKC,0.00,VWS V14.01,2013-02-09 15:35:00,
2013-02-09 10:37:00,149.5,99.9,0.00,South,170,7.1,7.9,97,0.00,,SKC,0.00,VWS V14.01,2013-02-09 15:37:00,
2013-02-09 10:38:00,149.5,99.9,0.00,ENE,76,5.8,7.8,97,0.00,,SKC,0.00,VWS V14.01,2013-02-09 15:38:00,
2013-02-09 10:41:00,149.5,99.9,0.00,ENE,62,4.7,12.0,97,0.00,,SKC,0.00,VWS V14.01,2013-02-09 15:41:00,
2013-02-09 10:43:00,149.5,99.9,0.00,NE,55,4.7,5.4,97,0.00,,SKC,0.00,VWS V14.01,2013-02-09 15:43:00,
2013-02-09 10:45:00,149.5,99.9,0.00,East,101,4.9,8.8,97,0.00,,SKC,0.00,VWS V14.01,2013-02-09 15:45:00,
2013-02-09 10:48:00,149.5,99.9,0.00,ENE,62,5.0,5.7,97,0.00,,SKC,0.00,VWS V14.01,2013-02-09 15:48:00,
2013-02-09 10:49:00,149.5,99.9,0.00,East,94,3.2,6.8,97,0.00,,SKC,0.00,VWS V14.01,2013-02-09 15:49:00,
2013-02-09 10:51:00,149.5,99.9,0.00,ESE,103,5.8,7.0,96,0.00,,SKC,0.00,VWS V14.01,2013-02-09 15:51:00,
2013-02-09 10:54:00,149.5,99.9,0.00,East,98,1.2,3.0,96,0.00,,SKC,0.00,VWS V14.01,2013-02-09 15:54:00,
2013-02-09 10:56:00,149.5,99.9,0.00,East,97,5.2,8.9,96,0.00,,SKC,0.00,VWS V14.01,2013-02-09 15:56:00,
2013-02-09 10:58:00,149.5,99.9,0.00,East,94,1.7,6.2,96,0.00,,SKC,0.00,VWS V14.01,2013-02-09 15:58:00,
2013-02-09 10:59:00,149.5,99.9,0.00,ESE,104,4.3,4.9,96,0.00,,SKC,0.00,VWS V14.01,2013-02-09 15:59:00,
2013-02-09 11:03:00,149.5,99.9,0.00,SE,142,2.5,5.8,96,0.00,,SKC,0.00,VWS V14.01,2013-02-09 16:03:00,
2013-02-09 11:04:00,149.5,99.9,0.00,SSE,150,3.2,3.2,96,0.00,,SKC,0.00,VWS V14.01,2013-02-09 16:04:00,
2013-02-09 11:07:00,149.5,99.9,0.00,NE,56,4.0,6.2,96,0.00,,SKC,0.00,VWS V14.01,2013-02-09 16:07:00,
2013-02-09 11:08:00,149.5,99.9,0.00,ENE,69,4.0,6.3,96,0.00,,SKC,0.00,VWS V14.01,2013-02-09 16:08:00,
2013-02-09 11:09:00,149.5,99.9,0.00,East,84,5.2,8.1,96,0.00,,SKC,0.00,VWS V14.01,2013-02-09 16:09:00,
2013-02-09 11:10:00,149.5,99.9,0.00,East,93,4.0,7.6,96,0.00,,SKC,0.00,VWS V14.01,2013-02-09 16:10:00,
2013-02-09 11:13:00,149.5,99.9,0.00,East,79,5.8,5.8,96,0.00,,SKC,0.00,VWS V14.01,2013-02-09 16:13:00,
2013-02-09 11:14:00,149.5,99.9,0.00,ESE,111,2.1,5.8,96,0.00,,SKC,0.00,VWS V14.01,2013-02-09 16:14:00,
2013-02-09 11:15:00,149.5,99.9,0.00,SSE,150,5.4,6.0,96,0.00,,SKC,0.00,VWS V14.01,2013-02-09 16:15:00,
2013-02-09 11:18:00,149.5,99.9,0.00,ESE,107,1.0,3.9,96,0.00,,SKC,0.00,VWS V14.01,2013-02-09 16:18:00,
2013-02-09 11:19:00,149.5,99.9,0.00,ESE,107,1.1,4.2,96,0.00,,SKC,0.00,VWS V14.01,2013-02-09 16:19:00,
2013-02-09 11:20:00,149.5,99.9,0.00,ESE,105,2.5,4.0,96,0.00,,SKC,0.00,VWS V14.01,2013-02-09 16:20:00,
2013-02-09 11:24:00,149.5,99.9,0.00,SSE,166,5.1,6.7,96,0.00,,SKC,0.00,VWS V14.01,2013-02-09 16:24:00,
2013-02-09 11:25:00,149.5,99.9,0.00,SE,131,2.9,5.5,96,0.00,,SKC,0.00,VWS V14.01,2013-02-09 16:25:00,
2013-02-09 11:26:00,149.5,99.9,0.00,SE,141,4.5,6.8,96,0.00,,SKC,0.00,VWS V14.01,2013-02-09 16:26:00,
2013-02-09 11:29:00,149.5,99.9,0.00,SE,145,1.7,5.0,96,0.00,,SKC,0.00,VWS V14.01,2013-02-09 16:29:00,
2013-02-09 11:30:00,149.5,99.9,0.00,ESE,103,2.8,4.9,96,0.00,,SKC,0.00,VWS V14.01,2013-02-09 16:30:00,
2013-02-09 11:31:00,149.5,99.9,0.00,ESE,122,1.6,3.8,96,0.00,,SKC,0.00,VWS V14.01,2013-02-09 16:31:00,
2013-02-09 11:34:00,149.5,99.9,0.00,ESE,115,6.3,6.3,95,0.00,,SKC,0.00,VWS V14.01,2013-02-09 16:34:00,
2013-02-09 11:37:00,149.5,99.9,0.00,SE,136,5.1,5.7,96,0.00,,SKC,0.00,VWS V14.01,2013-02-09 16:37:00,
2013-02-09 11:39:00,149.5,99.9,0.00,South,173,6.4,8.3,95,0.00,,SKC,0.00,VWS V14.01,2013-02-09 16:39:00,
2013-02-09 11:41:00,149.5,99.9,0.00,ENE,62,3.2,12.7,95,0.00,,SKC,0.00,VWS V14.01,2013-02-09 16:41:00,
2013-02-09 11:42:00,149.5,99.9,0.00,ESE,121,1.6,5.6,96,0.00,,SKC,0.00,VWS V14.01,2013-02-09 16:42:00,
2013-02-09 11:45:00,149.5,99.9,0.00,ESE,122,5.8,7.3,96,0.00,,SKC,0.00,VWS V14.01,2013-02-09 16:45:00,
2013-02-09 11:47:00,149.5,99.9,0.00,SSE,148,8.8,8.8,95,0.00,,SKC,0.00,VWS V14.01,2013-02-09 16:47:00,
2013-02-09 11:48:00,149.5,99.9,0.00,South,191,5.7,8.8,95,0.00,,SKC,0.00,VWS V14.01,2013-02-09 16:48:00,
2013-02-09 11:52:00,149.5,99.9,0.00,SSE,150,4.7,8.0,95,0.00,,SKC,0.00,VWS V14.01,2013-02-09 16:52:00,
2013-02-09 11:53:00,149.5,99.9,0.00,SE,127,7.3,7.3,95,0.00,,SKC,0.00,VWS V14.01,2013-02-09 16:53:00,
2013-02-09 11:54:00,149.5,99.9,0.00,ESE,103,8.3,10.1,95,0.00,,SKC,0.00,VWS V14.01,2013-02-09 16:54:00,
2013-02-09 11:56:00,149.5,99.9,0.00,SSE,156,2.9,8.1,95,0.00,,SKC,0.00,VWS V14.01,2013-02-09 16:56:00,
2013-02-09 11:59:00,149.5,99.9,0.00,ESE,122,3.0,5.3,95,0.00,,SKC,0.00,VWS V14.01,2013-02-09 16:59:00,
2013-02-09 12:01:00,149.5,99.9,0.00,East,86,2.9,9.9,95,0.00,,SKC,0.00,VWS V14.01,2013-02-09 17:01:00,
2013-02-09 12:04:00,149.5,99.9,0.00,ESE,110,3.4,7.6,95,0.00,,SKC,0.00,VWS V14.01,2013-02-09 17:04:00,
2013-02-09 12:06:00,149.5,99.9,0.00,SSE,148,3.0,8.5,95,0.00,,SKC,0.00,VWS V14.01,2013-02-09 17:06:00,
2013-02-09 12:07:00,149.5,99.9,0.00,NE,41,1.9,7.3,95,0.00,,SKC,0.00,VWS V14.01,2013-02-09 17:07:00,
2013-02-09 12:09:00,149.5,99.9,0.00,SE,129,4.8,7.3,95,0.00,,SKC,0.00,VWS V14.01,2013-02-09 17:09:00,
2013-02-09 12:12:00,149.5,99.9,0.00,SE,139,5.8,10.6,95,0.00,,SKC,0.00,VWS V14.01,2013-02-09 17:12:00,
2013-02-09 12:13:00,149.5,99.9,0.00,SE,136,8.0,9.6,95,0.00,,SKC,0.00,VWS V14.01,2013-02-09 17:13:00,
2013-02-09 12:17:00,149.5,99.9,0.00,SW,229,2.7,7.0,95,0.00,,SKC,0.00,VWS V14.01,2013-02-09 17:17:00,
2013-02-09 12:18:00,149.5,99.9,0.00,SE,132,7.3,8.9,95,0.00,,SKC,0.00,VWS V14.01,2013-02-09 17:18:00,
2013-02-09 12:19:00,149.5,99.9,0.00,NNE,22,2.1,9.9,95,0.00,,SKC,0.00,VWS V14.01,2013-02-09 17:19:00,
2013-02-09 12:22:00,149.5,99.9,0.00,South,170,4.0,10.6,95,0.00,,SKC,0.00,VWS V14.01,2013-02-09 17:22:00,
2013-02-09 12:24:00,149.5,99.9,0.00,SSE,155,5.1,9.9,95,0.00,,SKC,0.00,VWS V14.01,2013-02-09 17:24:00,
2013-02-09 12:25:00,149.5,99.9,0.00,ESE,121,7.6,10.6,94,0.00,,SKC,0.00,VWS V14.01,2013-02-09 17:25:00,
2013-02-09 12:27:00,149.5,99.9,0.00,SSE,162,9.8,11.3,95,0.00,,SKC,0.00,VWS V14.01,2013-02-09 17:27:00,
2013-02-09 12:30:00,149.5,99.9,0.00,SE,145,6.0,8.9,95,0.00,,SKC,0.00,VWS V14.01,2013-02-09 17:30:00,
2013-02-09 12:31:00,149.5,99.9,0.00,SSE,148,9.8,11.7,95,0.00,,SKC,0.00,VWS V14.01,2013-02-09 17:31:00,
2013-02-09 12:35:00,149.5,99.9,0.00,SSE,162,9.3,11.1,94,0.00,,SKC,0.00,VWS V14.01,2013-02-09 17:35:00,
2013-02-09 12:36:00,149.5,99.9,0.00,SE,131,10.5,12.8,95,0.00,,SKC,0.00,VWS V14.01,2013-02-09 17:36:00,
2013-02-09 12:39:00,149.5,99.9,0.00,South,173,5.3,10.0,95,0.00,,SKC,0.00,VWS V14.01,2013-02-09 17:39:00,
2013-02-09 12:40:00,149.5,99.9,0.00,East,93,4.7,8.2,95,0.00,,SKC,0.00,VWS V14.01,2013-02-09 17:40:00,
2013-02-09 12:41:00,149.5,99.9,0.00,SSW,208,3.7,9.5,95,0.00,,SKC,0.00,VWS V14.01,2013-02-09 17:41:00,
2013-02-09 12:42:00,149.5,99.9,0.00,WSW,246,5.4,8.5,95,0.00,,SKC,0.00,VWS V14.01,2013-02-09 17:42:00,
2013-02-09 12:47:00,149.5,99.9,0.00,ESE,108,4.1,5.3,95,0.00,,SKC,0.00,VWS V14.01,2013-02-09 17:47:00,
2013-02-09 12:51:00,149.5,99.9,0.00,SSE,149,10.3,10.3,94,0.00,,SKC,0.00,VWS V14.01,2013-02-09 17:51:00,
2013-02-09 12:52:00,149.5,99.9,0.00,South,172,8.8,10.3,94,0.00,,SKC,0.00,VWS V14.01,2013-02-09 17:52:00,
2013-02-09 12:54:00,149.5,99.9,0.00,SSE,153,9.9,11.1,94,0.00,,SKC,0.00,VWS V14.01,2013-02-09 17:54:00,
2013-02-09 12:56:00,149.5,99.9,0.00,SE,128,10.0,10.1,94,0.00,,SKC,0.00,VWS V14.01,2013-02-09 17:56:00,
2013-02-09 12:57:00,149.5,99.9,0.00,SE,136,9.3,11.4,94,0.00,,SKC,0.00,VWS V14.01,2013-02-09 17:57:00,
2013-02-09 13:02:00,149.5,99.9,0.00,East,100,4.3,8.2,95,0.00,,SKC,0.00,VWS V14.01,2013-02-09 18:02:00,
2013-02-09 13:03:00,149.5,99.9,0.00,SSE,163,1.8,6.9,95,0.00,,SKC,0.00,VWS V14.01,2013-02-09 18:03:00,
2013-02-09 13:04:00,149.5,99.9,0.00,SSE,152,5.7,10.0,94,0.00,,SKC,0.00,VWS V14.01,2013-02-09 18:04:00,
2013-02-09 13:09:00,149.5,99.9,0.00,South,170,8.6,12.7,94,0.00,,SKC,0.00,VWS V14.01,2013-02-09 18:09:00,
2013-02-09 13:10:00,149.5,99.9,0.00,SE,124,11.5,11.9,94,0.00,,SKC,0.00,VWS V14.01,2013-02-09 18:10:00,
2013-02-09 13:11:00,149.5,99.9,0.00,East,82,3.4,11.9,94,0.00,,SKC,0.00,VWS V14.01,2013-02-09 18:11:00,
2013-02-09 13:12:00,149.5,99.9,0.00,SE,142,6.3,8.0,95,0.00,,SKC,0.00,VWS V14.01,2013-02-09 18:12:00,
2013-02-09 13:15:00,149.5,99.9,0.00,ENE,59,4.4,7.1,95,0.00,,SKC,0.00,VWS V14.01,2013-02-09 18:15:00,
2013-02-09 13:16:00,149.5,99.9,0.00,SSE,158,7.3,8.3,95,0.00,,SKC,0.00,VWS V14.01,2013-02-09 18:16:00,
2013-02-09 13:17:00,149.5,99.9,0.00,SE,132,7.2,8.6,95,0.00,,SKC,0.00,VWS V14.01,2013-02-09 18:17:00,
2013-02-09 13:21:00,149.5,99.9,0.00,SE,134,11.4,11.4,94,0.00,,SKC,0.00,VWS V14.01,2013-02-09 18:21:00,
2013-02-09 13:22:00,149.5,99.9,0.00,South,184,6.8,11.4,94,0.00,,SKC,0.00,VWS V14.01,2013-02-09 18:22:00,
2013-02-09 13:23:00,149.5,99.9,0.00,SSW,198,3.7,6.8,94,0.00,,SKC,0.00,VWS V14.01,2013-02-09 18:23:00,
2013-02-09 13:28:00,149.5,99.9,0.00,ESE,117,6.6,9.8,94,0.00,,SKC,0.00,VWS V14.01,2013-02-09 18:28:00,
2013-02-09 13:29:00,149.5,99.9,0.00,East,79,6.2,10.4,94,0.00,,SKC,0.00,VWS V14.01,2013-02-09 18:29:00,
2013-02-09 13:33:00,149.5,99.9,0.00,SE,143,5.9,10.9,94,0.00,,SKC,0.00,VWS V14.01,2013-02-09 18:33:00,
2013-02-09 13:34:00,149.5,99.9,0.00,ESE,117,6.8,10.6,94,0.00,,SKC,0.00,VWS V14.01,2013-02-09 18:34:00,
2013-02-09 13:35:00,149.5,99.9,0.00,ESE,110,6.2,8.6,94,0.00,,SKC,0.00,VWS V14.01,2013-02-09 18:35:00,
2013-02-09 13:38:00,149.5,99.9,0.00,SE,142,5.7,12.9,94,0.00,,SKC,0.00,VWS V14.01,2013-02-09 18:38:00,
2013-02-09 13:44:00,149.5,99.9,0.00,SSE,155,12.4,12.4,95,0.00,,SKC,0.00,VWS V14.01,2013-02-09 18:44:00,
2013-02-09 13:45:00,149.5,99.9,0.00,SSE,163,5.3,12.4,95,0.00,,SKC,0.00,VWS V14.01,2013-02-09 18:45:00,
2013-02-09 13:50:00,149.5,99.9,0.00,East,89,2.0,12.9,95,0.00,,SKC,0.00,VWS V14.01,2013-02-09 18:50:00,
2013-02-09 13:51:00,149.5,99.9,0.00,ESE,115,10.8,10.8,95,0.00,,SKC,0.00,VWS V14.01,2013-02-09 18:51:00,
2013-02-09 13:54:00,149.5,99.9,0.00,SSW,201,3.9,8.0,95,0.00,,SKC,0.00,VWS V14.01,2013-02-09 18:54:00,
2013-02-09 13:56:00,149.5,99.9,0.00,South,176,9.5,11.1,95,0.00,,SKC,0.00,VWS V14.01,2013-02-09 18:56:00,
2013-02-09 13:57:00,149.5,99.9,0.00,SSW,200,4.7,9.5,95,0.00,,SKC,0.00,VWS V14.01,2013-02-09 18:57:00,
2013-02-09 13:58:00,149.5,99.9,0.00,WSW,249,6.3,10.8,95,0.00,,SKC,0.00,VWS V14.01,2013-02-09 18:58:00,
2013-02-09 14:02:00,149.5,99.9,0.00,SSE,155,11.4,11.4,95,0.00,,SKC,0.00,VWS V14.01,2013-02-09 19:02:00,
2013-02-09 14:05:00,149.5,99.9,0.00,SE,128,6.2,15.6,95,0.00,,SKC,0.00,VWS V14.01,2013-02-09 19:05:00,
2013-02-09 14:07:00,149.5,99.9,0.00,SSE,166,4.7,11.6,95,0.00,,SKC,0.00,VWS V14.01,2013-02-09 19:07:00,
2013-02-09 14:10:00,149.5,99.9,0.00,SE,132,6.8,10.4,95,0.00,,SKC,0.00,VWS V14.01,2013-02-09 19:10:00,
2013-02-09 14:15:00,149.5,99.9,0.00,SSE,160,11.3,11.3,95,0.00,,SKC,0.00,VWS V14.01,2013-02-09 19:15:00,
2013-02-09 14:16:00,149.5,99.9,0.00,SSE,159,6.6,11.3,96,0.00,,SKC,0.00,VWS V14.01,2013-02-09 19:16:00,
2013-02-09 14:18:00,149.5,99.9,0.00,SE,132,5.4,12.1,96,0.00,,SKC,0.00,VWS V14.01,2013-02-09 19:18:00,
2013-02-09 14:19:00,149.5,99.9,0.00,SSE,160,2.6,6.7,96,0.00,,SKC,0.00,VWS V14.01,2013-02-09 19:19:00,
2013-02-09 14:22:00,149.5,99.9,0.00,South,170,10.8,14.8,95,0.00,,SKC,0.00,VWS V14.01,2013-02-09 19:22:00,
2013-02-09 14:24:00,149.5,99.9,0.00,South,170,5.0,12.2,96,0.00,,SKC,0.00,VWS V14.01,2013-02-09 19:24:00,
2013-02-09 14:25:00,149.5,99.9,0.00,SSE,155,9.6,13.4,95,0.00,,SKC,0.00,VWS V14.01,2013-02-09 19:25:00,
2013-02-09 14:29:00,149.5,99.9,0.00,East,100,7.5,9.3,96,0.00,,SKC,0.00,VWS V14.01,2013-02-09 19:29:00,
2013-02-09 14:31:00,149.5,99.9,0.00,ESE,107,5.6,10.6,96,0.00,,SKC,0.00,VWS V14.01,2013-02-09 19:31:00,
2013-02-09 14:35:00,149.5,99.9,0.00,SE,124,2.9,9.3,96,0.00,,SKC,0.00,VWS V14.01,2013-02-09 19:35:00,
2013-02-09 14:40:00,149.5,99.9,0.00,ESE,114,3.7,11.6,96,0.00,,SKC,0.00,VWS V14.01,2013-02-09 19:40:00,
2013-02-09 14:41:00,149.5,99.9,0.00,SE,132,5.0,8.9,96,0.00,,SKC,0.00,VWS V14.01,2013-02-09 19:41:00,
2013-02-09 14:42:00,149.5,99.9,0.00,SSE,150,11.1,11.3,96,0.00,,SKC,0.00,VWS V14.01,2013-02-09 19:42:00,
2013-02-09 14:43:00,149.5,99.9,0.00,SSW,194,6.9,11.1,96,0.00,,SKC,0.00,VWS V14.01,2013-02-09 19:43:00,
2013-02-09 14:46:00,149.5,99.9,0.00,SE,146,7.0,11.6,96,0.00,,SKC,0.00,VWS V14.01,2013-02-09 19:46:00,
2013-02-09 14:48:00,149.5,99.9,0.00,WSW,253,4.2,8.6,96,0.00,,SKC,0.00,VWS V14.01,2013-02-09 19:48:00,
2013-02-09 14:49:00,149.5,99.9,0.00,SSE,149,6.1,12.4,96,0.00,,SKC,0.00,VWS V14.01,2013-02-09 19:49:00,
2013-02-09 14:50:00,149.5,99.9,0.00,SSE,166,4.4,8.6,96,0.00,,SKC,0.00,VWS V14.01,2013-02-09 19:50:00,
2013-02-09 14:55:00,149.5,99.9,0.00,SSE,153,5.6,7.4,96,0.00,,SKC,0.00,VWS V14.01,2013-02-09 19:55:00,
2013-02-09 14:56:00,149.5,99.9,0.00,SE,141,4.6,11.2,96,0.00,,SKC,0.00,VWS V14.01,2013-02-09 19:56:00,
2013-02-09 14:57:00,149.5,99.9,0.00,SW,217,5.6,14.4,96,0.00,,SKC,0.00,VWS V14.01,2013-02-09 19:57:00,
2013-02-09 14:59:00,149.5,99.9,0.00,South,180,6.3,11.0,96,0.00,,SKC,0.00,VWS V14.01,2013-02-09 19:59:00,
2013-02-09 15:01:00,149.5,99.9,0.00,SE,139,10.4,12.7,96,0.00,,SKC,0.00,VWS V14.01,2013-02-09 20:01:00,
2013-02-09 15:02:00,149.5,99.9,0.00,SE,131,7.0,14.5,96,0.00,,SKC,0.00,VWS V14.01,2013-02-09 20:02:00,
2013-02-09 15:05:00,149.5,99.9,0.00,South,169,9.7,13.5,96,0.00,,SKC,0.00,VWS V14.01,2013-02-09 20:05:00,
2013-02-09 15:06:00,149.5,99.9,0.00,SSE,149,9.2,13.9,96,0.00,,SKC,0.00,VWS V14.01,2013-02-09 20:06:00,
2013-02-09 15:10:00,149.5,99.9,0.00,ENE,65,6.8,8.9,96,0.00,,SKC,0.00,VWS V14.01,2013-02-09 20:10:00,
2013-02-09 15:12:00,149.5,99.9,0.00,South,186,3.9,11.9,96,0.00,,SKC,0.00,VWS V14.01,2013-02-09 20:12:00,
2013-02-09 15:15:00,149.5,99.9,0.00,SE,142,7.0,10.4,96,0.00,,SKC,0.00,VWS V14.01,2013-02-09 20:15:00,
2013-02-09 15:17:00,149.5,99.9,0.00,SSE,149,7.1,11.7,96,0.00,,SKC,0.00,VWS V14.01,2013-02-09 20:17:00,
2013-02-09 15:18:00,149.5,99.9,0.00,SSE,159,5.7,13.0,96,0.00,,SKC,0.00,VWS V14.01,2013-02-09 20:18:00,
2013-02-09 15:23:00,149.5,99.9,0.00,SSE,155,6.2,10.7,96,0.00,,SKC,0.00,VWS V14.01,2013-02-09 20:23:00,
2013-02-09 15:24:00,149.5,99.9,0.00,SSE,153,10.5,10.5,96,0.00,,SKC,0.00,VWS V14.01,2013-02-09 20:24:00,
2013-02-09 15:28:00,149.5,99.9,0.00,East,100,7.9,12.1,96,0.00,,SKC,0.00,VWS V14.01,2013-02-09 20:28:00,
2013-02-09 15:29:00,149.5,99.9,0.00,SE,134,7.1,13.0,96,0.00,,SKC,0.00,VWS V14.01,2013-02-09 20:29:00,
2013-02-09 15:32:00,149.5,99.9,0.00,SSE,155,9.7,11.9,96,0.00,,SKC,0.00,VWS V14.01,2013-02-09 20:32:00,
2013-02-09 15:33:00,149.5,99.9,0.00,SSW,197,9.5,12.5,96,0.00,,SKC,0.00,VWS V14.01,2013-02-09 20:33:00,
2013-02-09 15:34:00,149.5,99.9,0.00,SE,136,5.5,9.5,96,0.00,,SKC,0.00,VWS V14.01,2013-02-09 20:34:00,
2013-02-09 15:37:00,149.5,99.9,0.00,SSE,162,8.4,11.1,96,0.00,,SKC,0.00,VWS V14.01,2013-02-09 20:37:00,
2013-02-09 15:41:00,149.5,99.9,0.00,East,96,5.3,10.0,96,0.00,,SKC,0.00,VWS V14.01,2013-02-09 20:41:00,
2013-02-09 15:42:00,149.5,99.9,0.00,SSE,152,7.8,10.7,96,0.00,,SKC,0.00,VWS V14.01,2013-02-09 20:42:00,
2013-02-09 15:45:00,149.5,99.9,0.00,East,80,4.4,10.3,96,0.00,,SKC,0.00,VWS V14.01,2013-02-09 20:45:00,
2013-02-09 15:49:00,149.5,99.9,0.00,SE,132,6.0,10.3,96,0.00,,SKC,0.00,VWS V14.01,2013-02-09 20:49:00,
2013-02-09 15:54:00,149.5,99.9,0.00,SSE,165,4.3,11.6,96,0.00,,SKC,0.00,VWS V14.01,2013-02-09 20:54:00,
2013-02-09 15:55:00,149.5,99.9,0.00,SE,138,7.0,11.4,96,0.00,,SKC,0.00,VWS V14.01,2013-02-09 20:55:00,
2013-02-09 15:56:00,149.5,99.9,0.00,ESE,120,6.2,15.8,96,0.00,,SKC,0.00,VWS V14.01,2013-02-09 20:56:00,
2013-02-09 16:00:00,149.5,99.9,0.00,SE,128,8.1,11.7,96,0.00,,SKC,0.00,VWS V14.01,2013-02-09 21:00:00,
2013-02-09 16:01:00,149.5,99.9,0.00,SSE,156,3.8,8.1,96,0.00,,SKC,0.00,VWS V14.01,2013-02-09 21:01:00,
2013-02-09 16:05:00,149.5,99.9,0.00,ESE,118,4.2,9.1,96,0.00,,SKC,0.00,VWS V14.01,2013-02-09 21:05:00,
2013-02-09 16:06:00,149.5,99.9,0.00,SSE,162,7.0,9.8,96,0.00,,SKC,0.00,VWS V14.01,2013-02-09 21:06:00,
2013-02-09 16:08:00,149.5,99.9,0.00,SSE,159,9.4,11.2,96,0.00,,SKC,0.00,VWS V14.01,2013-02-09 21:08:00,
2013-02-09 16:12:00,149.5,99.9,0.00,SE,132,4.2,10.2,96,0.00,,SKC,0.00,VWS V14.01,2013-02-09 21:12:00,
2013-02-09 16:14:00,149.5,99.9,0.00,SSE,163,11.5,12.6,96,0.00,,SKC,0.00,VWS V14.01,2013-02-09 21:14:00,
2013-02-09 16:17:00,149.5,99.9,0.00,SE,127,8.3,14.7,97,0.00,,SKC,0.00,VWS V14.01,2013-02-09 21:17:00,
2013-02-09 16:18:00,149.5,99.9,0.00,South,180,5.0,12.4,97,0.00,,SKC,0.00,VWS V14.01,2013-02-09 21:18:00,
2013-02-09 16:19:00,149.5,99.9,0.00,SSE,167,10.7,11.7,97,0.00,,SKC,0.00,VWS V14.01,2013-02-09 21:19:00,
2013-02-09 16:24:00,149.5,99.9,0.00,ESE,118,6.2,11.4,97,0.00,,SKC,0.00,VWS V14.01,2013-02-09 21:24:00,
2013-02-09 16:25:00,149.5,99.9,0.00,SSE,155,7.8,8.8,97,0.00,,SKC,0.00,VWS V14.01,2013-02-09 21:25:00,
2013-02-09 16:26:00,149.5,99.9,0.00,SSE,148,4.5,9.8,97,0.00,,SKC,0.00,VWS V14.01,2013-02-09 21:26:00,
2013-02-09 16:31:00,149.5,99.9,0.00,South,170,6.0,7.1,97,0.00,,SKC,0.00,VWS V14.01,2013-02-09 21:31:00,
2013-02-09 16:32:00,149.5,99.9,0.00,SSE,163,4.3,9.3,97,0.00,,SKC,0.00,VWS V14.01,2013-02-09 21:32:00,
2013-02-09 16:35:00,149.5,99.9,0.00,SW,229,5.8,12.0,97,0.00,,SKC,0.00,VWS V14.01,2013-02-09 21:35:00,
2013-02-09 16:36:00,149.5,99.9,0.00,SSW,195,5.2,15.8,97,0.00,,SKC,0.00,VWS V14.01,2013-02-09 21:36:00,
2013-02-09 16:38:00,149.5,99.9,0.00,South,183,7.8,10.7,98,0.00,,SKC,0.00,VWS V14.01,2013-02-09 21:38:00,
2013-02-09 16:44:00,149.5,99.9,0.00,SE,145,6.3,9.2,98,0.00,,SKC,0.00,VWS V14.01,2013-02-09 21:44:00,
2013-02-09 16:46:00,149.5,99.9,0.00,South,170,3.7,10.3,98,0.00,,SKC,0.00,VWS V14.01,2013-02-09 21:46:00,
2013-02-09 16:51:00,149.5,99.9,0.00,SSW,202,7.6,13.3,98,0.00,,SKC,0.00,VWS V14.01,2013-02-09 21:51:00,
2013-02-09 16:53:00,149.5,99.9,0.00,SSW,211,6.7,10.4,98,0.00,,SKC,0.00,VWS V14.01,2013-02-09 21:53:00,
2013-02-09 16:57:00,149.5,99.9,0.00,SSW,200,6.6,12.8,98,0.00,,SKC,0.00,VWS V14.01,2013-02-09 21:57:00,
2013-02-09 17:00:00,149.5,99.9,0.00,South,173,8.9,10.2,98,0.00,,SKC,0.00,VWS V14.01,2013-02-09 22:00:00,
2013-02-09 17:02:00,149.5,99.9,0.00,SSW,205,5.4,9.7,98,0.00,,SKC,0.00,VWS V14.01,2013-02-09 22:02:00,
2013-02-09 17:04:00,149.5,99.9,0.00,SSE,148,5.3,10.4,98,0.00,,SKC,0.00,VWS V14.01,2013-02-09 22:04:00,
2013-02-09 17:08:00,149.5,99.9,0.00,South,187,3.9,8.5,98,0.00,,SKC,0.00,VWS V14.01,2013-02-09 22:08:00,
2013-02-09 17:10:00,149.5,99.9,0.00,West,274,7.5,12.8,98,0.00,,SKC,0.00,VWS V14.01,2013-02-09 22:10:00,
2013-02-09 17:11:00,149.5,99.9,0.00,SSE,158,6.6,7.6,98,0.00,,SKC,0.00,VWS V14.01,2013-02-09 22:11:00,
2013-02-09 17:14:00,149.5,99.9,0.00,South,190,6.6,12.8,98,0.00,,SKC,0.00,VWS V14.01,2013-02-09 22:14:00,
2013-02-09 17:16:00,149.5,99.9,0.00,SW,221,7.4,12.3,98,0.00,,SKC,0.00,VWS V14.01,2013-02-09 22:16:00,
2013-02-09 17:18:00,149.5,99.9,0.00,South,176,8.1,9.8,98,0.00,,SKC,0.00,VWS V14.01,2013-02-09 22:18:00,
2013-02-09 17:21:00,149.5,99.9,0.00,SE,141,5.8,10.4,98,0.00,,SKC,0.00,VWS V14.01,2013-02-09 22:21:00,
2013-02-09 17:23:00,149.5,99.9,0.00,SSW,201,7.8,11.2,98,0.00,,SKC,0.00,VWS V14.01,2013-02-09 22:23:00,
2013-02-09 17:26:00,149.5,99.9,0.00,SSE,149,9.3,13.3,98,0.00,,SKC,0.00,VWS V14.01,2013-02-09 22:26:00,
2013-02-09 17:27:00,149.5,99.9,0.00,South,181,8.8,9.4,98,0.00,,SKC,0.00,VWS V14.01,2013-02-09 22:27:00,
2013-02-09 17:31:00,149.5,99.9,0.00,SSE,155,7.5,9.6,98,0.00,,SKC,0.00,VWS V14.01,2013-02-09 22:31:00,
2013-02-09 17:32:00,149.5,99.9,0.00,South,187,5.8,14.0,98,0.00,,SKC,0.00,VWS V14.01,2013-02-09 22:32:00,
2013-02-09 17:36:00,149.5,99.9,0.00,South,188,8.6,9.9,98,0.00,,SKC,0.00,VWS V14.01,2013-02-09 22:36:00,
2013-02-09 17:37:00,149.5,99.9,0.00,SE,146,5.9,10.3,98,0.00,,SKC,0.00,VWS V14.01,2013-02-09 22:37:00,
2013-02-09 17:39:00,149.5,99.9,0.00,SE,143,5.3,11.5,98,0.00,,SKC,0.00,VWS V14.01,2013-02-09 22:39:00,
2013-02-09 17:43:00,149.5,99.9,0.00,East,97,2.9,12.3,98,0.00,,SKC,0.00,VWS V14.01,2013-02-09 22:43:00,
2013-02-09 17:44:00,149.5,99.9,0.00,SE,136,6.9,9.4,98,0.00,,SKC,0.00,VWS V14.01,2013-02-09 22:44:00,
2013-02-09 17:48:00,149.5,99.9,0.00,SSE,165,4.8,9.3,98,0.00,,SKC,0.00,VWS V14.01,2013-02-09 22:48:00,
2013-02-09 17:50:00,149.5,99.9,0.00,SSE,162,7.5,11.4,98,0.00,,SKC,0.00,VWS V14.01,2013-02-09 22:50:00,
2013-02-09 17:51:00,149.5,99.9,0.00,South,174,3.7,9.5,98,0.00,,SKC,0.00,VWS V14.01,2013-02-09 22:51:00,
2013-02-09 17:53:00,149.5,99.9,0.00,SSE,160,4.5,9.4,99,0.00,,SKC,0.00,VWS V14.01,2013-02-09 22:53:00,
2013-02-09 17:56:00,149.5,99.9,0.00,SSE,158,8.9,15.3,99,0.00,,SKC,0.00,VWS V14.01,2013-02-09 22:56:00,
2013-02-09 17:59:00,149.5,99.9,0.00,SSW,212,5.7,11.0,99,0.00,,SKC,0.00,VWS V14.01,2013-02-09 22:59:00,
2013-02-09 18:00:00,149.5,99.9,0.00,SSE,166,9.1,12.0,99,0.00,,SKC,0.00,VWS V14.01,2013-02-09 23:00:00,
2013-02-09 18:02:00,149.5,99.9,0.00,SSE,152,12.4,15.3,99,0.00,,SKC,0.00,VWS V14.01,2013-02-09 23:02:00,
2013-02-09 18:04:00,149.5,99.9,0.00,ESE,118,7.8,11.2,99,0.00,,SKC,0.00,VWS V14.01,2013-02-09 23:04:00,
2013-02-09 18:06:00,149.5,99.9,0.00,SSE,165,9.4,12.2,99,0.00,,SKC,0.00,VWS V14.01,2013-02-09 23:06:00,
2013-02-09 18:07:00,149.5,99.9,0.00,SSW,198,4.9,11.1,99,0.00,,SKC,0.00,VWS V14.01,2013-02-09 23:07:00,
2013-02-09 18:12:00,149.5,99.9,0.00,SE,134,4.2,11.9,99,0.00,,SKC,0.00,VWS V14.01,2013-02-09 23:12:00,
2013-02-09 18:13:00,149.5,99.9,0.00,SSE,167,5.2,9.3,99,0.00,,SKC,0.00,VWS V14.01,2013-02-09 23:13:00,
2013-02-09 18:14:00,149.5,99.9,0.00,SSE,160,5.0,11.2,99,0.00,,SKC,0.00,VWS V14.01,2013-02-09 23:14:00,
2013-02-09 18:18:00,149.5,99.9,0.00,ESE,104,3.9,6.4,99,0.00,,SKC,0.00,VWS V14.01,2013-02-09 23:18:00,
2013-02-09 18:20:00,149.5,99.9,0.00,South,186,6.8,7.3,99,0.00,,SKC,0.00,VWS V14.01,2013-02-09 23:20:00,
2013-02-09 18:21:00,149.5,99.9,0.00,SSE,165,9.6,9.6,99,0.00,,SKC,0.00,VWS V14.01,2013-02-09 23:21:00,
2013-02-09 18:24:00,149.5,99.9,0.00,SE,143,7.7,9.6,99,0.00,,SKC,0.00,VWS V14.01,2013-02-09 23:24:00,
2013-02-09 18:27:00,149.5,99.9,0.00,SE,138,8.0,8.6,99,0.00,,SKC,0.00,VWS V14.01,2013-02-09 23:27:00,
2013-02-09 18:30:00,149.5,99.9,0.00,SSW,211,6.2,11.6,99,0.00,,SKC,0.00,VWS V14.01,2013-02-09 23:30:00,
2013-02-09 18:31:00,149.5,99.9,0.00,SW,221,4.7,9.3,99,0.00,,SKC,0.00,VWS V14.01,2013-02-09 23:31:00,
2013-02-09 18:33:00,149.5,99.9,0.00,South,170,7.3,8.5,99,0.00,,SKC,0.00,VWS V14.01,2013-02-09 23:33:00,
2013-02-09 18:36:00,149.5,99.9,0.00,SE,132,4.1,6.5,99,0.00,,SKC,0.00,VWS V14.01,2013-02-09 23:36:00,
2013-02-09 18:37:00,149.5,99.9,0.00,South,184,7.5,9.7,99,0.00,,SKC,0.00,VWS V14.01,2013-02-09 23:37:00,
2013-02-09 18:38:00,149.5,99.9,0.00,SE,127,3.9,11.5,99,0.00,,SKC,0.00,VWS V14.01,2013-02-09 23:38:00,
2013-02-09 18:42:00,149.5,99.9,0.00,South,188,2.9,8.5,99,0.00,,SKC,0.00,VWS V14.01,2013-02-09 23:42:00,
2013-02-09 18:45:00,149.5,99.9,0.00,South,172,5.2,9.6,99,0.00,,SKC,0.00,VWS V14.01,2013-02-09 23:45:00,
2013-02-09 18:46:00,149.5,99.9,0.00,SSE,163,15.0,15.0,99,0.00,,SKC,0.00,VWS V14.01,2013-02-09 23:46:00,
2013-02-09 18:50:00,149.5,99.9,0.00,ESE,114,8.8,14.0,99,0.00,,SKC,0.00,VWS V14.01,2013-02-09 23:50:00,
2013-02-09 18:51:00,149.5,99.9,0.00,SSW,211,12.9,12.9,99,0.00,,SKC,0.00,VWS V14.01,2013-02-09 23:51:00,
2013-02-09 18:52:00,149.5,99.9,0.00,SSE,163,4.5,12.9,99,0.00,,SKC,0.00,VWS V14.01,2013-02-09 23:52:00,
2013-02-09 18:56:00,149.5,99.9,0.00,SSE,156,5.7,8.3,99,0.00,,SKC,0.00,VWS V14.01,2013-02-09 23:56:00,
2013-02-09 18:57:00,149.5,99.9,0.00,South,177,9.1,14.3,99,0.00,,SKC,0.00,VWS V14.01,2013-02-09 23:57:00,
2013-02-09 18:59:00,149.5,99.9,0.00,South,170,4.8,12.9,99,0.00,,SKC,0.00,VWS V14.01,2013-02-09 23:59:00,
2013-02-09 19:02:00,149.5,99.9,0.00,South,191,4.5,5.9,99,0.00,,SKC,0.00,VWS V14.01,2013-02-10 00:02:00,
2013-02-09 19:05:00,149.5,99.9,0.00,SSE,166,7.8,9.1,99,0.00,,SKC,0.00,VWS V14.01,2013-02-10 00:05:00,
2013-02-09 19:07:00,149.5,99.9,0.00,SSW,197,6.3,13.6,99,0.00,,SKC,0.00,VWS V14.01,2013-02-10 00:07:00,
2013-02-09 19:08:00,149.5,99.9,0.00,SE,145,6.3,12.5,99,0.00,,SKC,0.00,VWS V14.01,2013-02-10 00:08:00,
2013-02-09 19:13:00,149.5,99.9,0.00,SE,131,7.3,12.4,99,0.00,,SKC,0.00,VWS V14.01,2013-02-10 00:13:00,
2013-02-09 19:14:00,149.5,99.9,0.00,SE,145,6.6,13.1,99,0.00,,SKC,0.00,VWS V14.01,2013-02-10 00:14:00,
2013-02-09 19:15:00,149.5,99.9,0.00,SE,138,6.0,12.5,99,0.00,,SKC,0.00,VWS V14.01,2013-02-10 00:15:00,
2013-02-09 19:18:00,149.5,99.9,0.00,SE,138,9.1,14.7,99,0.00,,SKC,0.00,VWS V14.01,2013-02-10 00:18:00,
2013-02-09 19:23:00,149.5,99.9,0.00,ESE,110,5.3,16.1,99,0.00,,SKC,0.00,VWS V14.01,2013-02-10 00:23:00,
2013-02-09 19:26:00,149.5,99.9,0.00,SE,134,6.3,11.4,100,0.00,,SKC,0.00,VWS V14.01,2013-02-10 00:26:00,
2013-02-09 19:27:00,149.5,99.9,0.00,SE,128,7.3,16.2,100,0.00,,SKC,0.00,VWS V14.01,2013-02-10 00:27:00,
2013-02-09 19:31:00,149.5,99.9,0.00,ESE,115,8.4,11.9,100,0.00,,SKC,0.00,VWS V14.01,2013-02-10 00:31:00,
2013-02-09 19:34:00,149.5,99.9,0.00,SW,215,6.8,12.0,100,0.00,,SKC,0.00,VWS V14.01,2013-02-10 00:34:00,
2013-02-09 19:36:00,149.5,99.9,0.00,South,180,8.2,11.3,100,0.00,,SKC,0.00,VWS V14.01,2013-02-10 00:36:00,
2013-02-09 19:38:00,149.5,99.9,0.00,South,179,12.1,13.1,100,0.00,,SKC,0.00,VWS V14.01,2013-02-10 00:38:00,
2013-02-09 19:43:00,149.5,99.9,0.00,SSE,158,7.7,11.0,100,0.00,,SKC,0.00,VWS V14.01,2013-02-10 00:43:00,
2013-02-09 19:44:00,149.5,99.9,0.00,SSE,149,8.1,11.2,100,0.00,,SKC,0.00,VWS V14.01,2013-02-10 00:44:00,
2013-02-09 19:48:00,149.5,99.9,0.00,SE,135,8.2,12.1,100,0.00,,SKC,0.00,VWS V14.01,2013-02-10 00:48:00,
2013-02-09 19:53:00,149.5,99.9,0.00,SSE,155,7.1,9.4,100,0.00,,SKC,0.00,VWS V14.01,2013-02-10 00:53:00,
2013-02-09 19:55:00,149.5,99.9,0.00,SSE,148,4.1,9.4,100,0.00,,SKC,0.00,VWS V14.01,2013-02-10 00:55:00,
2013-02-09 19:57:00,149.5,99.9,0.00,South,174,8.6,11.7,100,0.00,,SKC,0.00,VWS V14.01,2013-02-10 00:57:00,
2013-02-09 19:58:00,149.5,99.9,0.00,SSE,166,9.1,10.3,100,0.00,,SKC,0.00,VWS V14.01,2013-02-10 00:58:00,
2013-02-09 20:03:00,149.5,99.9,0.00,SSW,195,7.5,13.5,100,0.00,,SKC,0.00,VWS V14.01,2013-02-10 01:03:00,
2013-02-09 20:06:00,149.5,99.9,0.00,ESE,121,8.7,13.7,100,0.00,,SKC,0.00,VWS V14.01,2013-02-10 01:06:00,
2013-02-09 20:09:00,149.5,99.9,0.00,South,174,9.2,10.1,100,0.00,,SKC,0.00,VWS V14.01,2013-02-10 01:09:00,
2013-02-09 20:10:00,149.5,99.9,0.00,SSE,158,6.6,13.4,100,0.00,,SKC,0.00,VWS V14.01,2013-02-10 01:10:00,
2013-02-09 20:15:00,149.5,99.9,0.00,SE,131,6.5,11.8,100,0.00,,SKC,0.00,VWS V14.01,2013-02-10 01:15:00,
2013-02-09 20:19:00,149.5,99.9,0.00,SSE,162,8.3,17.4,100,0.00,,SKC,0.00,VWS V14.01,2013-02-10 01:19:00,
2013-02-09 20:20:00,149.5,99.9,0.00,SE,125,10.4,11.9,100,0.00,,SKC,0.00,VWS V14.01,2013-02-10 01:20:00,
2013-02-09 20:24:00,149.5,99.9,0.00,SE,139,10.7,10.7,100,0.00,,SKC,0.00,VWS V14.01,2013-02-10 01:24:00,
2013-02-09 20:26:00,149.5,99.9,0.00,SE,141,9.7,13.4,100,0.00,,SKC,0.00,VWS V14.01,2013-02-10 01:26:00,
2013-02-09 20:27:00,149.5,99.9,0.00,South,184,5.8,9.7,100,0.00,,SKC,0.00,VWS V14.01,2013-02-10 01:27:00,
2013-02-09 20:29:00,149.5,99.9,0.00,SSW,205,9.6,9.6,100,0.00,,SKC,0.00,VWS V14.01,2013-02-10 01:29:00,
2013-02-09 20:31:00,149.5,99.9,0.00,South,169,18.9,18.9,100,0.00,,SKC,0.00,VWS V14.01,2013-02-10 01:31:00,
2013-02-09 20:37:00,149.5,99.9,0.00,SE,135,9.4,13.8,100,0.00,,SKC,0.00,VWS V14.01,2013-02-10 01:37:00,
2013-02-09 20:40:00,149.5,99.9,0.00,SSE,167,13.0,13.5,100,0.00,,SKC,0.00,VWS V14.01,2013-02-10 01:40:00,
2013-02-09 20:43:00,149.5,99.9,0.00,SE,134,12.9,12.9,100,0.00,,SKC,0.00,VWS V14.01,2013-02-10 01:43:00,
2013-02-09 20:45:00,149.5,99.9,0.00,SE,127,6.8,13.7,100,0.00,,SKC,0.00,VWS V14.01,2013-02-10 01:45:00,
2013-02-09 20:49:00,149.5,99.9,0.00,SSE,152,10.1,16.2,100,0.00,,SKC,0.00,VWS V14.01,2013-02-10 01:49:00,
2013-02-09 20:53:00,149.5,99.9,0.00,SE,138,8.2,11.6,100,0.00,,SKC,0.00,VWS V14.01,2013-02-10 01:53:00,
2013-02-09 20:54:00,149.5,99.9,0.00,SSE,159,9.1,13.2,100,0.00,,SKC,0.00,VWS V14.01,2013-02-10 01:54:00,
2013-02-09 20:59:00,149.5,99.9,0.00,ESE,104,6.5,10.7,100,0.00,,SKC,0.00,VWS V14.01,2013-02-10 01:59:00,
2013-02-09 21:00:00,149.5,99.9,0.00,ESE,121,10.4,12.5,100,0.00,,SKC,0.00,VWS V14.01,2013-02-10 02:00:00,
2013-02-09 21:04:00,149.5,99.9,0.00,East,101,8.2,9.8,100,0.00,,SKC,0.00,VWS V14.01,2013-02-10 02:04:00,
2013-02-09 21:05:00,149.5,99.9,0.00,SSE,153,11.0,11.0,100,0.00,,SKC,0.00,VWS V14.01,2013-02-10 02:05:00,
2013-02-09 21:06:00,149.5,99.9,0.00,SSE,166,3.2,11.0,100,0.00,,SKC,0.00,VWS V14.01,2013-02-10 02:06:00,
2013-02-09 21:11:00,149.5,99.9,0.00,SE,138,9.1,13.4,100,0.00,,SKC,0.00,VWS V14.01,2013-02-10 02:11:00,
2013-02-09 21:12:00,149.5,99.9,0.00,South,190,6.9,12.7,100,0.00,,SKC,0.00,VWS V14.01,2013-02-10 02:12:00,
2013-02-09 21:13:00,149.5,99.9,0.00,SE,139,9.5,12.4,100,0.00,,SKC,0.00,VWS V14.01,2013-02-10 02:13:00,
2013-02-09 21:16:00,149.5,99.9,0.00,South,180,6.3,13.9,100,0.00,,SKC,0.00,VWS V14.01,2013-02-10 02:16:00,
2013-02-09 21:20:00,149.5,99.9,0.00,SSE,159,3.9,15.2,100,0.00,,SKC,0.00,VWS V14.01,2013-02-10 02:20:00,
2013-02-09 21:23:00,149.5,99.9,0.00,SSE,155,6.6,13.9,100,0.00,,SKC,0.00,VWS V14.01,2013-02-10 02:23:00,
2013-02-09 21:26:00,149.5,99.9,0.00,South,173,4.4,15.0,100,0.00,,SKC,0.00,VWS V14.01,2013-02-10 02:26:00,
2013-02-09 21:30:00,149.5,99.9,0.00,SSE,149,4.5,12.1,100,0.00,,SKC,0.00,VWS V14.01,2013-02-10 02:30:00,
2013-02-09 21:31:00,149.5,99.9,0.00,SSE,167,7.7,9.0,100,0.00,,SKC,0.00,VWS V14.01,2013-02-10 02:31:00,
2013-02-09 21:35:00,149.5,99.9,0.00,ESE,114,7.8,13.2,100,0.00,,SKC,0.00,VWS V14.01,2013-02-10 02:35:00,
2013-02-09 21:36:00,149.5,99.9,0.00,SSE,153,5.3,11.9,100,0.00,,SKC,0.00,VWS V14.01,2013-02-10 02:36:00,
2013-02-09 21:40:00,149.5,99.9,0.00,SE,146,8.8,9.9,100,0.00,,SKC,0.00,VWS V14.01,2013-02-10 02:40:00,
2013-02-09 21:41:00,149.5,99.9,0.00,ESE,117,10.1,10.1,100,0.00,,SKC,0.00,VWS V14.01,2013-02-10 02:41:00,
2013-02-09 21:45:00,149.5,99.9,0.00,SE,127,8.3,14.6,100,0.00,,SKC,0.00,VWS V14.01,2013-02-10 02:45:00,
2013-02-09 21:46:00,149.5,99.9,0.00,SE,135,11.3,13.4,100,0.00,,SKC,0.00,VWS V14.01,2013-02-10 02:46:00,
2013-02-09 21:48:00,149.5,99.9,0.00,SE,124,6.3,9.6,100,0.00,,SKC,0.00,VWS V14.01,2013-02-10 02:48:00,
2013-02-09 21:51:00,149.5,99.9,0.00,South,183,6.0,12.3,100,0.00,,SKC,0.00,VWS V14.01,2013-02-10 02:51:00,
2013-02-09 21:53:00,149.5,99.9,0.00,SSE,167,4.3,11.2,100,0.00,,SKC,0.00,VWS V14.01,2013-02-10 02:53:00,
2013-02-09 21:55:00,149.5,99.9,0.00,SSE,159,6.0,15.7,100,0.00,,SKC,0.00,VWS V14.01,2013-02-10 02:55:00,
2013-02-09 21:56:00,149.5,99.9,0.00,SW,222,6.0,10.1,100,0.00,,SKC,0.00,VWS V14.01,2013-02-10 02:56:00,
2013-02-09 22:01:00,149.5,99.9,0.00,South,173,7.0,12.9,100,0.00,,SKC,0.00,VWS V14.01,2013-02-10 03:01:00,
2013-02-09 22:02:00,149.5,99.9,0.00,South,170,6.2,12.6,100,0.00,,SKC,0.00,VWS V14.01,2013-02-10 03:02:00,
2013-02-09 22:04:00,149.5,99.9,0.00,SE,135,10.1,17.1,100,0.00,,SKC,0.00,VWS V14.01,2013-02-10 03:04:00,
2013-02-09 22:06:00,149.5,99.9,0.00,South,169,8.1,14.2,100,0.00,,SKC,0.00,VWS V14.01,2013-02-10 03:06:00,
2013-02-09 22:07:00,149.5,99.9,0.00,ENE,59,5.3,17.1,100,0.00,,SKC,0.00,VWS V14.01,2013-02-10 03:07:00,
2013-02-09 22:08:00,149.5,99.9,0.00,South,172,8.9,13.6,100,0.00,,SKC,0.00,VWS V14.01,2013-02-10 03:08:00,
2013-02-09 22:12:00,149.5,99.9,0.00,SSE,158,9.4,13.1,100,0.00,,SKC,0.00,VWS V14.01,2013-02-10 03:12:00,
2013-02-09 22:14:00,149.5,99.9,0.00,SE,142,14.3,17.1,100,0.00,,SKC,0.00,VWS V14.01,2013-02-10 03:14:00,
2013-02-09 22:17:00,149.5,99.9,0.00,SSE,148,12.7,15.3,100,0.00,,SKC,0.00,VWS V14.01,2013-02-10 03:17:00,
2013-02-09 22:19:00,149.5,99.9,0.00,SSE,159,6.3,11.1,100,0.00,,SKC,0.00,VWS V14.01,2013-02-10 03:19:00,
2013-02-09 22:20:00,149.5,99.9,0.00,SSE,153,9.5,10.3,100,0.00,,SKC,0.00,VWS V14.01,2013-02-10 03:20:00,
2013-02-09 22:22:00,149.5,99.9,0.00,SE,141,10.2,11.1,100,0.00,,SKC,0.00,VWS V14.01,2013-02-10 03:22:00,
2013-02-09 22:24:00,149.5,99.9,0.00,SSE,167,13.4,16.8,100,0.00,,SKC,0.00,VWS V14.01,2013-02-10 03:24:00,
2013-02-09 22:26:00,149.5,99.9,0.00,SE,138,10.4,17.8,100,0.00,,SKC,0.00,VWS V14.01,2013-02-10 03:26:00,
2013-02-09 22:27:00,149.5,99.9,0.00,SW,214,5.4,13.5,100,0.00,,SKC,0.00,VWS V14.01,2013-02-10 03:27:00,
2013-02-09 22:29:00,149.5,99.9,0.00,SSE,165,7.3,11.9,100,0.00,,SKC,0.00,VWS V14.01,2013-02-10 03:29:00,
2013-02-09 22:32:00,149.5,99.9,0.00,SSE,160,6.7,13.2,100,0.00,,SKC,0.00,VWS V14.01,2013-02-10 03:32:00,
2013-02-09 22:33:00,149.5,99.9,0.00,SE,145,10.6,17.8,100,0.00,,SKC,0.00,VWS V14.01,2013-02-10 03:33:00,
2013-02-09 22:34:00,149.5,99.9,0.00,SSE,156,14.5,15.7,100,0.00,,SKC,0.00,VWS V14.01,2013-02-10 03:34:00,
2013-02-09 22:37:00,149.5,99.9,0.00,SSE,155,9.1,13.0,100,0.00,,SKC,0.00,VWS V14.01,2013-02-10 03:37:00,
2013-02-09 22:39:00,149.5,99.9,0.00,SE,142,7.1,14.1,100,0.00,,SKC,0.00,VWS V14.01,2013-02-10 03:39:00,
2013-02-09 22:40:00,149.5,99.9,0.00,South,177,5.8,14.4,100,0.00,,SKC,0.00,VWS V14.01,2013-02-10 03:40:00,
2013-02-09 22:42:00,149.5,99.9,0.00,SE,136,14.0,16.5,100,0.00,,SKC,0.00,VWS V14.01,2013-02-10 03:42:00,
2013-02-09 22:45:00,149.5,99.9,0.00,SE,142,10.4,14.5,100,0.00,,SKC,0.00,VWS V14.01,2013-02-10 03:45:00,
2013-02-09 22:48:00,149.5,99.9,0.00,South,179,8.9,13.5,100,0.00,,SKC,0.00,VWS V14.01,2013-02-10 03:48:00,
2013-02-09 22:49:00,149.5,99.9,0.00,SSE,150,12.1,16.4,100,0.00,,SKC,0.00,VWS V14.01,2013-02-10 03:49:00,
2013-02-09 22:51:00,149.5,99.9,0.00,South,186,11.1,12.9,100,0.00,,SKC,0.00,VWS V14.01,2013-02-10 03:51:00,
2013-02-09 22:52:00,149.5,99.9,0.00,SE,139,7.7,13.1,100,0.00,,SKC,0.00,VWS V14.01,2013-02-10 03:52:00,
2013-02-09 22:54:00,149.5,99.9,0.00,SE,143,13.9,14.2,100,0.00,,SKC,0.00,VWS V14.01,2013-02-10 03:54:00,
2013-02-09 22:57:00,149.5,99.9,0.00,SSE,158,13.5,16.8,100,0.00,,SKC,0.00,VWS V14.01,2013-02-10 03:57:00,
2013-02-09 23:01:00,149.5,99.9,0.00,South,173,16.2,16.2,100,0.00,,SKC,0.00,VWS V14.01,2013-02-10 04:01:00,
2013-02-09 23:02:00,149.5,99.9,0.00,South,186,9.0,16.2,100,0.00,,SKC,0.00,VWS V14.01,2013-02-10 04:02:00,
2013-02-09 23:03:00,149.5,99.9,0.00,SE,132,7.6,17.0,100,0.00,,SKC,0.00,VWS V14.01,2013-02-10 04:03:00,
2013-02-09 23:05:00,149.5,99.9,0.00,ESE,120,6.6,15.0,100,0.00,,SKC,0.00,VWS V14.01,2013-02-10 04:05:00,
2013-02-09 23:06:00,149.5,99.9,0.00,SSE,152,9.6,12.5,100,0.00,,SKC,0.00,VWS V14.01,2013-02-10 04:06:00,
2013-02-09 23:07:00,149.5,99.9,0.00,SE,146,8.3,15.1,100,0.00,,SKC,0.00,VWS V14.01,2013-02-10 04:07:00,
2013-02-09 23:12:00,149.5,99.9,0.00,SSE,148,12.2,13.2,100,0.00,,SKC,0.00,VWS V14.01,2013-02-10 04:12:00,
2013-02-09 23:13:00,149.5,99.9,0.00,South,183,11.9,13.8,100,0.00,,SKC,0.00,VWS V14.01,2013-02-10 04:13:00,
2013-02-09 23:18:00,149.5,99.9,0.00,ESE,118,11.7,12.5,100,0.00,,SKC,0.00,VWS V14.01,2013-02-10 04:18:00,
2013-02-09 23:19:00,149.5,99.9,0.00,SE,145,7.9,11.7,100,0.00,,SKC,0.00,VWS V14.01,2013-02-10 04:19:00,
2013-02-09 23:21:00,149.5,99.9,0.00,SSE,160,6.0,11.4,100,0.00,,SKC,0.00,VWS V14.01,2013-02-10 04:21:00,
2013-02-09 23:24:00,149.5,99.9,0.00,SSE,148,15.5,15.5,100,0.00,,SKC,0.00,VWS V14.01,2013-02-10 04:24:00,
2013-02-09 23:27:00,149.5,99.9,0.00,SSE,148,11.1,11.1,100,0.00,,SKC,0.00,VWS V14.01,2013-02-10 04:27:00,
2013-02-09 23:28:00,149.5,99.9,0.00,South,190,2.6,12.8,100,0.00,,SKC,0.00,VWS V14.01,2013-02-10 04:28:00,
2013-02-09 23:29:00,149.5,99.9,0.00,East,101,6.5,12.0,100,0.00,,SKC,0.00,VWS V14.01,2013-02-10 04:29:00,
2013-02-09 23:30:00,149.5,99.9,0.00,SSE,166,5.2,9.6,100,0.00,,SKC,0.00,VWS V14.01,2013-02-10 04:30:00,
2013-02-09 23:34:00,149.5,99.9,0.00,SSE,149,13.8,15.0,100,0.00,,SKC,0.00,VWS V14.01,2013-02-10 04:34:00,
2013-02-09 23:35:00,149.5,99.9,0.00,SSE,156,4.1,13.8,100,0.00,,SKC,0.00,VWS V14.01,2013-02-10 04:35:00,
2013-02-09 23:39:00,149.5,99.9,0.00,East,101,7.0,14.9,100,0.00,,SKC,0.00,VWS V14.01,2013-02-10 04:39:00,
2013-02-09 23:41:00,149.5,99.9,0.00,SSE,153,6.4,13.5,100,0.00,,SKC,0.00,VWS V14.01,2013-02-10 04:41:00,
2013-02-09 23:44:00,149.5,99.9,0.00,SE,141,4.4,11.1,100,0.00,,SKC,0.00,VWS V14.01,2013-02-10 04:44:00,
2013-02-09 23:49:00,149.5,99.9,0.00,SSE,159,5.7,8.9,100,0.00,,SKC,0.00,VWS V14.01,2013-02-10 04:49:00,
2013-02-09 23:52:00,149.5,99.9,0.00,SSE,152,7.3,9.0,100,0.00,,SKC,0.00,VWS V14.01,2013-02-10 04:52:00,
2013-02-09 23:54:00,149.5,99.9,0.00,SSE,150,13.2,14.3,100,0.00,,SKC,0.00,VWS V14.01,2013-02-10 04:54:00,
2013-02-09 23:56:00,149.5,99.9,0.00,SE,141,5.5,14.9,100,0.00,,SKC,0.00,VWS V14.01,2013-02-10 04:56:00,
2013-02-09 23:59:00,149.5,99.9,0.00,SSE,152,8.7,11.7,100,0.00,,SKC,0.00,VWS V14.01,2013-02-10 04:59:00,